GEFSSGP_prec_meanprecacc_210.txt.gz
Total_Precipitation_Accumulation
0.01 0.05 0.20 0.39 0.76 1.26 1.32 0.86 0.71 0.47 0.38 0.40 0.31 0.28 0.36 0.55 0.75 0.99 0.42 0.19 0.11 0.09 0.14 0.22 0.24 0.20 0.22 0.25 0.33 0.41 0.47 0.54 0.56 0.57 0.61 0.61 0.62 0.60 0.58 0.56 0.52 0.52 0.48 0.41 0.35 0.34 0.34 0.33 0.35
0.02 0.06 0.22 0.42 0.95 1.51 1.25 0.62 0.44 0.36 0.33 0.37 0.34 0.34 0.50 0.52 0.39 0.38 0.25 0.17 0.10 0.07 0.10 0.12 0.16 0.16 0.16 0.22 0.29 0.40 0.44 0.44 0.44 0.52 0.56 0.55 0.58 0.59 0.57 0.53 0.52 0.50 0.44 0.37 0.30 0.31 0.31 0.29 0.28
0.02 0.06 0.21 0.44 0.83 1.09 0.87 0.49 0.34 0.28 0.34 0.48 0.51 0.42 0.60 0.54 0.40 0.37 0.23 0.12 0.09 0.08 0.12 0.12 0.13 0.12 0.13 0.17 0.25 0.38 0.42 0.41 0.44 0.49 0.49 0.50 0.52 0.55 0.52 0.52 0.54 0.51 0.42 0.34 0.29 0.27 0.25 0.23 0.21
0.02 0.10 0.20 0.35 0.49 0.49 0.46 0.36 0.29 0.29 0.34 0.46 0.56 0.54 0.61 0.42 0.26 0.25 0.18 0.11 0.07 0.09 0.14 0.14 0.13 0.11 0.11 0.13 0.20 0.31 0.37 0.41 0.46 0.46 0.45 0.51 0.57 0.56 0.49 0.50 0.49 0.46 0.40 0.34 0.33 0.27 0.20 0.21 0.20
0.03 0.09 0.19 0.33 0.38 0.38 0.34 0.33 0.30 0.37 0.43 0.51 0.56 0.75 0.74 0.48 0.32 0.22 0.18 0.13 0.06 0.07 0.11 0.12 0.13 0.12 0.13 0.14 0.23 0.36 0.42 0.43 0.40 0.41 0.51 0.58 0.57 0.55 0.54 0.49 0.44 0.39 0.34 0.30 0.33 0.30 0.28 0.27 0.27
0.03 0.05 0.13 0.25 0.30 0.33 0.30 0.26 0.23 0.32 0.47 0.62 0.70 0.79 0.82 0.62 0.45 0.32 0.22 0.17 0.11 0.08 0.12 0.16 0.18 0.17 0.15 0.16 0.21 0.30 0.33 0.36 0.39 0.44 0.48 0.47 0.43 0.43 0.47 0.44 0.41 0.35 0.33 0.35 0.34 0.32 0.33 0.37 0.37
0.02 0.04 0.06 0.14 0.20 0.22 0.23 0.26 0.24 0.28 0.45 0.61 0.67 0.89 0.97 0.83 0.60 0.42 0.33 0.34 0.33 0.20 0.18 0.22 0.26 0.26 0.23 0.23 0.27 0.30 0.33 0.36 0.39 0.42 0.43 0.40 0.37 0.38 0.39 0.38 0.39 0.35 0.36 0.36 0.36 0.32 0.31 0.36 0.39
0.01 0.03 0.04 0.08 0.14 0.21 0.18 0.21 0.23 0.30 0.34 0.45 0.55 0.77 1.00 0.85 0.62 0.61 0.72 0.69 0.72 0.51 0.36 0.33 0.39 0.48 0.41 0.33 0.33 0.34 0.35 0.36 0.38 0.42 0.44 0.47 0.47 0.44 0.47 0.46 0.45 0.42 0.43 0.44 0.45 0.41 0.38 0.41 0.42
0.01 0.02 0.03 0.06 0.09 0.14 0.11 0.16 0.21 0.19 0.24 0.33 0.44 0.61 0.78 0.67 0.64 0.87 1.16 1.02 0.96 0.80 0.57 0.44 0.40 0.52 0.58 0.49 0.42 0.46 0.47 0.46 0.50 0.60 0.62 0.76 0.91 0.82 0.85 0.69 0.72 0.74 0.74 0.73 0.72 0.67 0.61 0.53 0.50
0.00 0.02 0.02 0.03 0.04 0.06 0.07 0.14 0.18 0.22 0.42 0.66 0.76 0.79 0.80 0.87 0.95 1.17 1.28 1.15 1.07 0.99 0.77 0.63 0.54 0.50 0.56 0.58 0.72 0.88 0.83 0.81 0.90 1.05 1.10 1.35 1.46 1.35 0.92 0.92 1.17 1.34 1.38 1.31 1.30 1.26 1.04 0.89 0.86
0.00 0.01 0.02 0.01 0.02 0.04 0.06 0.09 0.15 0.25 0.60 0.93 1.13 1.15 1.10 1.25 1.45 1.59 1.64 1.59 1.42 1.30 0.99 0.78 0.73 0.73 0.72 0.87 0.86 1.01 1.19 1.34 1.32 1.29 1.41 1.62 1.51 1.25 1.06 1.15 1.36 1.53 1.63 1.75 2.01 2.03 1.69 1.69 1.75
0.00 0.00 0.01 0.01 0.01 0.02 0.05 0.07 0.16 0.36 0.74 0.90 1.09 1.20 1.14 1.35 1.55 1.66 2.10 2.16 1.74 1.45 1.31 1.16 1.05 1.04 1.10 1.02 1.11 1.12 1.15 1.24 1.30 1.44 1.51 1.65 1.76 1.65 1.54 1.65 1.69 1.85 2.00 2.38 2.38 2.51 2.38 2.16 1.89
0.00 0.00 0.00 0.01 0.01 0.01 0.03 0.08 0.17 0.35 0.54 0.63 0.84 0.95 0.93 1.30 1.60 1.97 2.54 2.48 2.16 1.91 1.71 1.52 1.50 1.53 1.48 1.44 1.46 1.32 1.32 1.32 1.40 1.55 1.71 1.79 1.87 1.86 1.87 1.94 2.00 1.80 1.92 2.22 2.46 2.40 2.57 2.59 2.36
0.00 0.00 0.01 0.01 0.02 0.02 0.03 0.10 0.21 0.40 0.54 0.72 0.75 0.92 1.13 1.49 1.76 2.19 2.54 2.77 2.60 2.27 1.98 1.83 1.78 1.83 1.89 1.82 1.85 1.78 1.52 1.56 1.53 1.72 1.79 1.89 1.98 2.07 2.18 2.19 2.15 1.91 1.92 2.16 2.38 2.32 2.65 2.58 2.53
0.01 0.02 0.04 0.03 0.04 0.05 0.06 0.21 0.41 0.54 0.68 0.83 0.95 1.05 1.27 1.60 2.08 2.35 2.59 2.90 2.90 2.74 2.53 2.29 2.17 2.30 2.45 2.46 2.37 2.19 1.95 1.74 1.76 1.86 1.91 1.99 2.01 2.19 2.19 2.13 2.12 2.09 2.03 2.23 2.34 2.41 2.56 2.40 2.30
0.01 0.03 0.10 0.10 0.07 0.07 0.13 0.49 0.61 0.51 0.76 0.95 1.02 1.18 1.55 1.94 2.36 2.81 2.94 2.85 2.87 2.98 2.91 2.58 2.35 2.76 3.05 3.00 2.89 2.67 2.35 2.06 1.92 1.97 1.96 2.04 2.11 2.22 2.38 2.17 2.06 2.27 2.26 2.40 2.66 2.64 2.77 2.87 2.78
0.01 0.05 0.10 0.14 0.09 0.10 0.23 0.68 0.62 0.44 0.62 0.82 1.05 1.23 1.70 2.23 2.57 2.72 2.78 2.93 3.06 3.15 3.10 2.95 3.01 3.11 3.21 3.29 3.34 3.06 2.78 2.47 2.17 2.04 1.97 2.01 2.10 2.31 2.64 2.48 2.47 2.47 2.47 2.49 2.23 2.78 3.10 3.12 2.98
0.01 0.04 0.09 0.15 0.12 0.15 0.26 0.51 0.57 0.50 0.65 0.87 1.20 1.41 1.56 1.95 2.40 2.50 2.61 3.06 3.14 3.30 3.39 3.26 3.35 3.47 3.72 3.92 4.04 3.62 3.17 2.79 2.47 2.27 2.24 2.25 2.45 2.58 2.80 2.59 2.56 2.57 2.69 2.65 2.71 3.11 3.09 2.84 2.85
0.01 0.04 0.11 0.15 0.14 0.20 0.30 0.50 0.67 0.66 0.82 1.21 1.44 1.45 1.43 1.73 2.22 2.58 2.83 3.01 3.34 3.51 3.64 3.61 3.78 4.12 4.41 4.25 3.90 3.65 3.29 3.03 2.82 2.59 2.43 2.42 2.39 2.54 2.81 2.67 2.85 2.75 2.64 2.64 2.69 2.95 3.00 2.70 2.89
0.02 0.06 0.14 0.16 0.15 0.25 0.38 0.60 0.77 0.89 1.13 1.27 1.21 1.23 1.40 1.78 2.28 2.64 2.91 3.07 3.33 3.58 3.97 4.05 4.19 4.49 4.57 4.39 4.25 4.06 3.85 3.42 3.28 3.14 2.90 2.52 2.35 2.43 2.50 2.79 2.61 2.59 2.64 2.59 2.71 2.91 2.77 2.40 2.82
0.04 0.07 0.13 0.14 0.21 0.34 0.44 0.82 1.00 1.13 1.27 1.25 1.21 1.42 1.46 1.56 1.99 2.26 2.38 2.59 2.77 2.89 3.12 3.38 3.82 4.29 4.40 4.45 4.37 4.28 4.23 3.69 3.40 3.21 2.95 2.62 2.38 2.31 2.40 2.54 2.57 2.52 2.43 2.47 2.64 2.68 2.67 2.54 2.61
0.06 0.06 0.06 0.10 0.19 0.45 0.52 1.04 1.27 1.47 1.54 1.35 1.31 1.28 1.30 1.56 1.90 1.92 1.79 1.94 2.20 2.19 2.49 2.86 3.27 3.59 3.79 3.91 3.88 3.84 3.70 3.45 3.34 3.21 2.80 2.52 2.31 2.24 2.28 2.33 2.33 2.34 2.24 2.30 2.17 2.25 2.60 2.70 2.48
0.05 0.04 0.07 0.11 0.19 0.41 0.46 0.81 1.30 1.69 1.81 1.41 1.28 1.19 1.29 1.56 1.61 1.58 1.60 1.71 1.88 2.05 2.36 2.65 2.91 3.17 3.32 3.37 3.40 3.44 3.27 3.15 3.10 2.97 2.66 2.38 2.22 2.10 1.94 2.00 2.18 2.17 2.07 2.03 2.05 2.22 2.30 2.31 2.29
0.04 0.07 0.13 0.20 0.37 0.71 0.61 0.72 1.23 1.62 1.46 1.24 1.17 1.00 1.10 1.33 1.43 1.49 1.58 1.71 1.84 2.13 2.48 2.74 2.91 3.10 3.15 2.92 2.79 2.77 2.78 2.79 2.72 2.54 2.33 2.07 1.95 1.85 1.69 1.75 1.93 1.94 1.93 1.92 1.88 1.94 2.02 2.07 2.14
0.08 0.17 0.56 0.92 1.24 1.14 0.72 0.82 1.40 1.28 0.93 0.85 0.94 0.92 0.94 1.01 1.16 1.28 1.46 1.67 1.84 1.94 2.02 2.36 2.69 2.87 2.82 2.58 2.41 2.32 2.39 2.46 2.39 2.23 2.15 2.01 1.78 1.63 1.58 1.61 1.66 1.67 1.70 1.72 1.79 1.82 1.88 2.00 2.08
0.13 0.24 0.69 0.95 1.00 0.99 0.79 1.18 1.60 1.20 0.82 0.68 0.78 0.79 0.70 0.66 0.64 0.73 0.91 1.03 1.12 1.14 1.18 1.31 1.52 1.74 1.83 1.75 1.76 1.78 1.81 1.83 1.81 1.94 1.85 1.82 1.68 1.53 1.52 1.46 1.41 1.44 1.47 1.51 1.72 1.74 1.84 1.95 2.00
0.24 0.28 0.30 0.50 0.69 1.03 1.03 1.20 1.22 0.97 0.78 0.73 0.84 0.78 0.61 0.55 0.51 0.57 0.68 0.69 0.79 0.82 0.87 1.00 1.19 1.35 1.39 1.40 1.41 1.44 1.43 1.46 1.51 1.55 1.51 1.51 1.53 1.45 1.44 1.43 1.46 1.40 1.42 1.49 1.58 1.60 1.63 1.78 1.82
0.20 0.28 0.43 0.68 0.91 1.05 1.11 1.37 1.50 1.34 1.10 0.97 0.93 0.79 0.59 0.48 0.44 0.49 0.58 0.60 0.71 0.86 1.00 1.14 1.25 1.27 1.25 1.26 1.25 1.16 1.26 1.28 1.34 1.30 1.23 1.23 1.28 1.28 1.27 1.27 1.30 1.32 1.30 1.32 1.44 1.47 1.52 1.64 1.67
0.23 0.30 0.46 0.63 0.70 0.89 1.22 1.31 1.02 0.97 0.99 1.06 1.06 0.88 0.61 0.46 0.42 0.46 0.56 0.61 0.68 0.81 0.95 1.08 1.18 1.27 1.22 1.16 1.19 1.22 1.23 1.23 1.23 1.19 1.11 1.16 1.21 1.19 1.14 1.16 1.21 1.23 1.26 1.31 1.36 1.32 1.42 1.46 1.49
0.22 0.32 0.47 0.71 0.77 0.80 0.94 1.02 0.60 0.59 0.71 0.81 0.81 0.65 0.48 0.42 0.41 0.47 0.52 0.57 0.66 0.77 0.85 0.86 0.93 1.09 1.10 1.09 1.17 1.32 1.31 1.27 1.17 1.08 1.04 1.07 1.09 1.10 1.09 1.13 1.16 1.12 1.17 1.28 1.35 1.36 1.41 1.43 1.41

GEFSSGP_prec_meanprecacc_216.txt.gz
Total_Precipitation_Accumulation
0.02 0.07 0.23 0.42 0.79 1.32 1.36 0.86 0.71 0.47 0.38 0.40 0.31 0.29 0.37 0.56 0.76 1.03 0.50 0.28 0.14 0.11 0.16 0.24 0.27 0.24 0.26 0.29 0.38 0.45 0.50 0.59 0.64 0.65 0.69 0.73 0.77 0.75 0.69 0.65 0.60 0.60 0.55 0.47 0.41 0.38 0.37 0.37 0.38
0.03 0.07 0.23 0.45 1.00 1.56 1.28 0.62 0.44 0.36 0.33 0.37 0.35 0.34 0.50 0.52 0.40 0.41 0.32 0.23 0.12 0.09 0.12 0.14 0.20 0.20 0.19 0.24 0.32 0.43 0.46 0.47 0.48 0.57 0.61 0.63 0.69 0.68 0.64 0.60 0.59 0.57 0.51 0.43 0.34 0.34 0.35 0.33 0.32
0.02 0.08 0.23 0.49 0.90 1.13 0.90 0.50 0.34 0.28 0.35 0.48 0.51 0.42 0.60 0.55 0.41 0.40 0.28 0.15 0.09 0.09 0.13 0.14 0.16 0.16 0.16 0.20 0.29 0.41 0.45 0.43 0.47 0.53 0.52 0.55 0.58 0.61 0.58 0.58 0.59 0.57 0.48 0.41 0.34 0.30 0.29 0.26 0.24
0.02 0.10 0.22 0.41 0.56 0.52 0.47 0.37 0.29 0.30 0.34 0.46 0.56 0.55 0.62 0.43 0.28 0.27 0.22 0.12 0.07 0.09 0.14 0.14 0.14 0.15 0.18 0.19 0.27 0.36 0.40 0.44 0.49 0.48 0.49 0.55 0.62 0.62 0.54 0.54 0.54 0.52 0.45 0.40 0.37 0.30 0.24 0.23 0.22
0.03 0.10 0.21 0.39 0.47 0.43 0.36 0.34 0.30 0.38 0.43 0.51 0.57 0.75 0.75 0.50 0.33 0.24 0.21 0.14 0.06 0.08 0.11 0.12 0.14 0.13 0.16 0.23 0.34 0.44 0.49 0.48 0.44 0.45 0.57 0.64 0.64 0.61 0.58 0.54 0.49 0.45 0.39 0.34 0.37 0.33 0.30 0.29 0.29
0.03 0.06 0.15 0.29 0.37 0.38 0.32 0.28 0.24 0.33 0.48 0.65 0.71 0.80 0.84 0.66 0.47 0.34 0.23 0.18 0.13 0.09 0.14 0.17 0.19 0.17 0.17 0.21 0.28 0.38 0.43 0.46 0.49 0.54 0.57 0.56 0.51 0.50 0.53 0.49 0.46 0.40 0.38 0.38 0.36 0.34 0.34 0.39 0.39
0.02 0.05 0.09 0.20 0.29 0.28 0.26 0.28 0.25 0.29 0.46 0.66 0.69 0.91 1.00 0.88 0.63 0.43 0.34 0.34 0.35 0.21 0.18 0.22 0.26 0.26 0.24 0.27 0.33 0.39 0.46 0.54 0.60 0.59 0.56 0.50 0.47 0.47 0.47 0.44 0.44 0.40 0.39 0.38 0.37 0.32 0.31 0.37 0.41
0.01 0.03 0.05 0.11 0.17 0.25 0.21 0.23 0.24 0.31 0.35 0.46 0.56 0.79 1.03 0.88 0.65 0.63 0.73 0.70 0.73 0.52 0.36 0.34 0.40 0.48 0.41 0.33 0.36 0.41 0.48 0.53 0.58 0.59 0.57 0.59 0.59 0.54 0.54 0.50 0.49 0.46 0.45 0.45 0.46 0.42 0.39 0.42 0.43
0.01 0.02 0.03 0.07 0.11 0.16 0.14 0.20 0.22 0.20 0.26 0.34 0.46 0.63 0.81 0.73 0.69 0.91 1.17 1.04 0.98 0.82 0.58 0.44 0.40 0.52 0.58 0.49 0.42 0.48 0.52 0.56 0.63 0.72 0.71 0.84 0.98 0.88 0.90 0.73 0.75 0.77 0.76 0.75 0.73 0.68 0.63 0.56 0.52
0.00 0.02 0.03 0.04 0.05 0.08 0.11 0.18 0.19 0.24 0.44 0.67 0.78 0.81 0.86 1.00 1.05 1.20 1.29 1.16 1.08 1.01 0.78 0.64 0.54 0.50 0.56 0.58 0.73 0.90 0.85 0.86 0.96 1.10 1.13 1.38 1.49 1.39 0.96 0.95 1.19 1.36 1.40 1.32 1.32 1.28 1.06 0.91 0.89
0.00 0.02 0.03 0.02 0.03 0.05 0.09 0.11 0.16 0.26 0.61 0.94 1.15 1.19 1.18 1.34 1.52 1.62 1.67 1.61 1.43 1.31 1.02 0.79 0.73 0.74 0.73 0.88 0.87 1.02 1.21 1.36 1.34 1.30 1.43 1.64 1.52 1.27 1.07 1.16 1.37 1.54 1.64 1.76 2.03 2.04 1.72 1.72 1.78
0.00 0.01 0.02 0.02 0.02 0.03 0.05 0.08 0.17 0.39 0.77 0.92 1.10 1.21 1.18 1.40 1.60 1.70 2.13 2.18 1.75 1.46 1.32 1.17 1.06 1.05 1.11 1.03 1.12 1.13 1.15 1.25 1.30 1.45 1.52 1.66 1.78 1.67 1.55 1.66 1.71 1.86 2.01 2.40 2.39 2.54 2.41 2.20 1.93
0.00 0.00 0.00 0.01 0.01 0.02 0.04 0.08 0.17 0.36 0.58 0.67 0.85 0.96 0.94 1.33 1.63 1.99 2.55 2.50 2.17 1.92 1.72 1.53 1.51 1.53 1.48 1.45 1.48 1.34 1.33 1.33 1.40 1.56 1.72 1.80 1.88 1.88 1.88 1.96 2.02 1.82 1.94 2.23 2.49 2.43 2.59 2.61 2.39
0.00 0.01 0.01 0.01 0.02 0.02 0.04 0.11 0.22 0.42 0.55 0.77 0.78 0.93 1.14 1.50 1.76 2.20 2.54 2.78 2.61 2.27 1.99 1.83 1.78 1.84 1.89 1.82 1.86 1.80 1.54 1.57 1.54 1.74 1.80 1.91 1.99 2.08 2.19 2.20 2.18 1.95 1.94 2.18 2.40 2.34 2.68 2.60 2.56
0.01 0.02 0.04 0.03 0.04 0.05 0.07 0.23 0.43 0.55 0.69 0.85 0.98 1.07 1.27 1.61 2.09 2.35 2.59 2.91 2.90 2.75 2.54 2.31 2.18 2.32 2.47 2.47 2.38 2.20 1.96 1.76 1.78 1.88 1.93 2.01 2.02 2.20 2.20 2.14 2.14 2.12 2.05 2.25 2.36 2.43 2.58 2.42 2.33
0.01 0.03 0.10 0.10 0.07 0.08 0.13 0.50 0.63 0.53 0.76 0.96 1.04 1.25 1.57 1.94 2.36 2.81 2.94 2.86 2.89 2.99 2.92 2.60 2.37 2.78 3.08 3.03 2.91 2.69 2.37 2.09 1.95 2.00 1.98 2.08 2.12 2.22 2.39 2.19 2.08 2.29 2.27 2.41 2.67 2.66 2.80 2.89 2.80
0.01 0.05 0.10 0.15 0.10 0.10 0.23 0.68 0.64 0.47 0.63 0.82 1.06 1.29 1.72 2.24 2.57 2.73 2.78 2.94 3.07 3.15 3.10 2.96 3.02 3.12 3.24 3.32 3.36 3.08 2.81 2.51 2.21 2.07 2.00 2.03 2.12 2.33 2.66 2.50 2.49 2.48 2.48 2.51 2.25 2.82 3.13 3.14 3.01
0.01 0.04 0.10 0.15 0.13 0.16 0.26 0.52 0.59 0.53 0.68 0.88 1.21 1.42 1.58 1.96 2.40 2.50 2.61 3.06 3.14 3.30 3.39 3.27 3.36 3.48 3.73 3.94 4.07 3.64 3.20 2.83 2.52 2.30 2.26 2.28 2.47 2.60 2.83 2.62 2.58 2.59 2.70 2.66 2.73 3.14 3.11 2.86 2.88
0.01 0.04 0.11 0.15 0.14 0.20 0.31 0.51 0.69 0.71 0.87 1.24 1.45 1.46 1.45 1.74 2.22 2.59 2.83 3.01 3.34 3.52 3.64 3.61 3.79 4.12 4.42 4.27 3.93 3.68 3.33 3.08 2.87 2.61 2.44 2.43 2.41 2.56 2.83 2.69 2.87 2.77 2.66 2.66 2.72 2.98 3.03 2.73 2.92
0.02 0.06 0.14 0.16 0.16 0.25 0.39 0.62 0.79 0.92 1.17 1.30 1.23 1.24 1.40 1.78 2.28 2.65 2.92 3.08 3.33 3.59 3.97 4.05 4.19 4.49 4.59 4.42 4.30 4.10 3.90 3.47 3.32 3.16 2.91 2.53 2.36 2.44 2.51 2.81 2.63 2.61 2.66 2.63 2.75 2.96 2.82 2.45 2.86
0.04 0.07 0.13 0.14 0.21 0.35 0.45 0.85 1.02 1.15 1.31 1.31 1.25 1.46 1.48 1.57 2.00 2.28 2.41 2.59 2.78 2.90 3.13 3.39 3.82 4.29 4.41 4.47 4.40 4.31 4.26 3.72 3.42 3.22 2.96 2.63 2.40 2.32 2.43 2.56 2.59 2.54 2.45 2.50 2.68 2.72 2.72 2.60 2.67
0.06 0.06 0.06 0.10 0.19 0.46 0.53 1.07 1.30 1.49 1.57 1.42 1.39 1.35 1.33 1.58 1.91 1.93 1.80 1.95 2.20 2.20 2.49 2.86 3.28 3.59 3.80 3.92 3.89 3.85 3.72 3.47 3.37 3.23 2.84 2.58 2.36 2.28 2.32 2.36 2.37 2.36 2.26 2.32 2.18 2.27 2.64 2.75 2.52
0.05 0.04 0.07 0.11 0.19 0.41 0.48 0.82 1.32 1.70 1.83 1.46 1.36 1.27 1.35 1.58 1.62 1.59 1.61 1.72 1.89 2.06 2.37 2.66 2.93 3.18 3.33 3.38 3.42 3.47 3.30 3.19 3.15 3.01 2.71 2.42 2.25 2.13 1.99 2.04 2.21 2.20 2.10 2.05 2.07 2.25 2.36 2.35 2.33
0.04 0.07 0.13 0.20 0.37 0.71 0.62 0.73 1.24 1.63 1.48 1.28 1.22 1.04 1.16 1.36 1.44 1.50 1.59 1.72 1.85 2.15 2.51 2.78 2.96 3.14 3.17 2.94 2.82 2.80 2.82 2.85 2.76 2.57 2.35 2.10 1.97 1.87 1.72 1.79 1.95 1.97 1.96 1.95 1.91 1.97 2.07 2.12 2.18
0.08 0.17 0.56 0.92 1.24 1.14 0.72 0.83 1.41 1.29 0.95 0.89 0.98 0.96 0.97 1.03 1.17 1.29 1.48 1.70 1.87 1.98 2.08 2.49 2.85 2.97 2.87 2.61 2.43 2.34 2.43 2.50 2.42 2.26 2.18 2.04 1.81 1.65 1.61 1.64 1.69 1.70 1.73 1.76 1.83 1.85 1.91 2.05 2.13
0.13 0.24 0.70 0.96 1.00 0.99 0.79 1.19 1.68 1.29 0.87 0.71 0.81 0.82 0.73 0.68 0.65 0.75 0.93 1.05 1.14 1.17 1.23 1.37 1.60 1.82 1.91 1.79 1.78 1.81 1.86 1.87 1.85 1.97 1.87 1.83 1.70 1.55 1.54 1.49 1.44 1.47 1.51 1.55 1.76 1.79 1.88 2.01 2.06
0.24 0.28 0.30 0.50 0.69 1.04 1.04 1.22 1.29 1.05 0.83 0.78 0.87 0.80 0.63 0.58 0.54 0.61 0.71 0.72 0.81 0.86 0.91 1.05 1.25 1.40 1.43 1.42 1.44 1.48 1.47 1.50 1.54 1.58 1.53 1.52 1.55 1.47 1.46 1.47 1.51 1.45 1.47 1.54 1.64 1.65 1.67 1.83 1.88
0.20 0.28 0.43 0.68 0.91 1.05 1.11 1.39 1.53 1.37 1.13 0.99 0.94 0.81 0.61 0.50 0.48 0.56 0.66 0.66 0.77 0.92 1.04 1.17 1.28 1.31 1.26 1.29 1.29 1.20 1.30 1.32 1.37 1.33 1.25 1.25 1.31 1.31 1.30 1.31 1.35 1.37 1.35 1.37 1.50 1.52 1.56 1.69 1.74
0.23 0.30 0.46 0.64 0.70 0.90 1.25 1.34 1.05 1.01 1.02 1.08 1.09 0.91 0.63 0.48 0.44 0.51 0.64 0.70 0.76 0.88 1.01 1.13 1.23 1.30 1.25 1.20 1.24 1.27 1.29 1.28 1.27 1.22 1.14 1.19 1.24 1.23 1.19 1.21 1.28 1.30 1.31 1.36 1.42 1.39 1.51 1.55 1.56
0.22 0.32 0.47 0.71 0.77 0.81 0.95 1.05 0.63 0.62 0.74 0.85 0.86 0.69 0.51 0.44 0.43 0.51 0.61 0.65 0.76 0.84 0.90 0.91 0.99 1.15 1.16 1.16 1.24 1.37 1.35 1.32 1.22 1.11 1.07 1.10 1.12 1.13 1.13 1.19 1.22 1.18 1.22 1.34 1.41 1.42 1.49 1.54 1.52

GEFSSGP_prec_meanprecacc_222.txt.gz
Total_Precipitation_Accumulation
0.02 0.07 0.23 0.43 0.80 1.32 1.37 0.87 0.72 0.48 0.38 0.40 0.32 0.29 0.37 0.56 0.77 1.04 0.53 0.33 0.17 0.15 0.21 0.33 0.34 0.30 0.30 0.34 0.47 0.55 0.60 0.71 0.77 0.80 0.86 0.86 0.88 0.86 0.79 0.75 0.69 0.69 0.65 0.56 0.47 0.42 0.42 0.42 0.42
0.03 0.07 0.24 0.45 1.00 1.56 1.29 0.64 0.45 0.36 0.33 0.37 0.35 0.34 0.51 0.53 0.40 0.42 0.34 0.27 0.14 0.11 0.14 0.18 0.25 0.25 0.23 0.29 0.39 0.50 0.54 0.56 0.59 0.69 0.73 0.73 0.78 0.77 0.73 0.67 0.67 0.66 0.61 0.52 0.39 0.37 0.38 0.35 0.34
0.02 0.08 0.23 0.49 0.90 1.14 0.92 0.53 0.35 0.29 0.35 0.48 0.51 0.42 0.60 0.55 0.42 0.41 0.30 0.17 0.11 0.10 0.14 0.16 0.19 0.19 0.20 0.23 0.33 0.46 0.50 0.48 0.54 0.59 0.60 0.64 0.67 0.69 0.66 0.65 0.66 0.64 0.56 0.48 0.39 0.34 0.32 0.28 0.26
0.02 0.10 0.22 0.41 0.56 0.53 0.49 0.40 0.31 0.30 0.34 0.46 0.56 0.55 0.62 0.44 0.29 0.28 0.23 0.13 0.07 0.10 0.15 0.16 0.16 0.17 0.20 0.22 0.30 0.41 0.44 0.48 0.54 0.54 0.55 0.62 0.69 0.70 0.62 0.61 0.61 0.58 0.52 0.45 0.41 0.34 0.27 0.26 0.26
0.03 0.10 0.21 0.39 0.47 0.44 0.37 0.35 0.32 0.39 0.44 0.51 0.57 0.76 0.76 0.51 0.34 0.25 0.21 0.14 0.06 0.08 0.12 0.13 0.16 0.15 0.18 0.25 0.36 0.46 0.53 0.52 0.48 0.50 0.63 0.72 0.75 0.71 0.66 0.60 0.56 0.52 0.46 0.38 0.40 0.36 0.33 0.32 0.32
0.03 0.06 0.15 0.29 0.37 0.39 0.33 0.29 0.25 0.33 0.48 0.65 0.71 0.82 0.86 0.67 0.48 0.34 0.23 0.19 0.14 0.10 0.14 0.18 0.20 0.18 0.18 0.22 0.30 0.40 0.45 0.49 0.52 0.58 0.63 0.65 0.64 0.60 0.60 0.56 0.54 0.49 0.44 0.42 0.38 0.36 0.37 0.42 0.42
0.02 0.05 0.09 0.20 0.29 0.28 0.26 0.29 0.25 0.29 0.47 0.66 0.69 0.93 1.01 0.89 0.64 0.44 0.34 0.35 0.35 0.21 0.18 0.22 0.26 0.27 0.25 0.29 0.37 0.46 0.48 0.56 0.62 0.62 0.61 0.59 0.57 0.55 0.54 0.51 0.51 0.46 0.44 0.41 0.40 0.35 0.35 0.41 0.44
0.01 0.03 0.05 0.11 0.18 0.25 0.21 0.23 0.24 0.31 0.35 0.47 0.57 0.81 1.05 0.91 0.66 0.63 0.73 0.71 0.73 0.52 0.36 0.34 0.40 0.48 0.42 0.37 0.45 0.53 0.54 0.57 0.61 0.64 0.65 0.69 0.67 0.61 0.60 0.55 0.53 0.51 0.49 0.48 0.49 0.46 0.44 0.47 0.47
0.01 0.02 0.04 0.07 0.11 0.16 0.14 0.21 0.23 0.20 0.26 0.34 0.46 0.65 0.85 0.77 0.71 0.91 1.18 1.05 0.99 0.82 0.58 0.44 0.40 0.52 0.59 0.54 0.51 0.60 0.63 0.64 0.71 0.84 0.86 0.95 1.05 0.94 0.95 0.76 0.78 0.80 0.80 0.79 0.78 0.73 0.67 0.61 0.56
0.00 0.02 0.03 0.04 0.05 0.08 0.12 0.18 0.20 0.24 0.44 0.67 0.78 0.83 0.92 1.07 1.07 1.21 1.30 1.17 1.08 1.01 0.78 0.64 0.54 0.50 0.57 0.60 0.76 0.96 0.93 0.95 1.09 1.30 1.31 1.47 1.55 1.45 1.02 0.99 1.23 1.40 1.44 1.37 1.37 1.33 1.10 0.93 0.90
0.00 0.02 0.03 0.02 0.03 0.05 0.09 0.11 0.16 0.26 0.61 0.95 1.15 1.19 1.20 1.38 1.55 1.64 1.68 1.61 1.43 1.32 1.02 0.79 0.73 0.74 0.73 0.89 0.89 1.06 1.27 1.45 1.49 1.48 1.53 1.69 1.57 1.33 1.12 1.19 1.40 1.56 1.66 1.78 2.05 2.07 1.74 1.74 1.80
0.00 0.01 0.02 0.02 0.02 0.03 0.06 0.08 0.17 0.39 0.77 0.92 1.10 1.21 1.20 1.49 1.66 1.74 2.15 2.19 1.78 1.48 1.33 1.17 1.06 1.06 1.12 1.04 1.15 1.16 1.20 1.32 1.41 1.54 1.57 1.69 1.82 1.71 1.58 1.68 1.72 1.87 2.02 2.41 2.40 2.56 2.43 2.21 1.94
0.00 0.00 0.00 0.01 0.01 0.02 0.04 0.09 0.17 0.37 0.58 0.67 0.85 0.96 0.96 1.45 1.80 2.06 2.57 2.51 2.19 1.95 1.75 1.55 1.53 1.56 1.53 1.48 1.51 1.37 1.37 1.39 1.47 1.61 1.76 1.83 1.91 1.90 1.89 1.97 2.03 1.83 1.95 2.25 2.50 2.44 2.61 2.63 2.41
0.00 0.01 0.01 0.01 0.02 0.03 0.04 0.11 0.22 0.42 0.55 0.77 0.78 0.93 1.14 1.51 1.79 2.21 2.56 2.80 2.63 2.30 2.03 1.86 1.82 1.90 1.96 1.89 1.92 1.85 1.58 1.62 1.58 1.78 1.83 1.93 2.00 2.09 2.20 2.22 2.19 1.96 1.95 2.19 2.42 2.35 2.69 2.62 2.58
0.01 0.02 0.04 0.03 0.04 0.05 0.07 0.23 0.44 0.55 0.69 0.85 0.98 1.07 1.28 1.62 2.10 2.38 2.64 2.94 2.93 2.77 2.56 2.33 2.20 2.34 2.54 2.59 2.47 2.28 2.03 1.82 1.82 1.91 1.95 2.02 2.04 2.22 2.22 2.16 2.16 2.13 2.07 2.26 2.37 2.44 2.59 2.44 2.35
0.01 0.03 0.10 0.10 0.07 0.08 0.13 0.51 0.64 0.53 0.76 0.96 1.04 1.28 1.58 1.96 2.39 2.88 3.03 2.90 2.90 3.00 2.93 2.61 2.38 2.80 3.13 3.13 3.02 2.76 2.43 2.14 2.00 2.03 2.01 2.11 2.15 2.26 2.43 2.21 2.10 2.30 2.29 2.43 2.70 2.69 2.82 2.92 2.83
0.01 0.05 0.10 0.15 0.10 0.10 0.23 0.69 0.65 0.48 0.63 0.82 1.06 1.31 1.73 2.24 2.59 2.76 2.80 2.95 3.07 3.15 3.10 2.96 3.02 3.13 3.26 3.34 3.40 3.13 2.85 2.55 2.25 2.09 2.02 2.07 2.17 2.38 2.70 2.54 2.52 2.51 2.52 2.55 2.28 2.85 3.16 3.19 3.06
0.01 0.04 0.10 0.15 0.13 0.16 0.27 0.52 0.59 0.54 0.68 0.88 1.21 1.43 1.58 1.96 2.40 2.51 2.61 3.06 3.14 3.30 3.39 3.27 3.36 3.48 3.74 3.95 4.09 3.66 3.22 2.85 2.55 2.33 2.28 2.31 2.50 2.65 2.88 2.67 2.63 2.62 2.75 2.71 2.77 3.17 3.15 2.91 2.94
0.01 0.04 0.11 0.15 0.14 0.21 0.31 0.52 0.70 0.72 0.88 1.24 1.45 1.46 1.45 1.74 2.23 2.59 2.83 3.01 3.35 3.52 3.64 3.61 3.79 4.13 4.42 4.27 3.94 3.70 3.36 3.10 2.88 2.63 2.45 2.46 2.44 2.59 2.86 2.73 2.92 2.82 2.70 2.70 2.77 3.02 3.07 2.78 2.97
0.02 0.06 0.14 0.16 0.16 0.26 0.40 0.63 0.80 0.93 1.18 1.31 1.24 1.25 1.41 1.79 2.28 2.65 2.92 3.08 3.33 3.59 3.98 4.06 4.20 4.50 4.59 4.43 4.31 4.12 3.92 3.50 3.34 3.17 2.93 2.57 2.39 2.46 2.55 2.87 2.69 2.66 2.71 2.67 2.81 3.02 2.88 2.51 2.92
0.04 0.07 0.13 0.14 0.21 0.36 0.46 0.86 1.04 1.16 1.32 1.32 1.26 1.47 1.49 1.58 2.00 2.28 2.41 2.60 2.78 2.90 3.13 3.39 3.83 4.30 4.42 4.48 4.41 4.32 4.28 3.73 3.44 3.25 3.00 2.67 2.43 2.36 2.48 2.64 2.67 2.61 2.51 2.55 2.74 2.81 2.81 2.66 2.73
0.06 0.06 0.06 0.10 0.19 0.46 0.53 1.08 1.31 1.50 1.58 1.43 1.40 1.36 1.34 1.58 1.91 1.93 1.80 1.95 2.21 2.20 2.50 2.87 3.29 3.60 3.81 3.93 3.90 3.87 3.74 3.49 3.40 3.28 2.88 2.61 2.39 2.32 2.37 2.43 2.46 2.44 2.33 2.37 2.23 2.35 2.74 2.83 2.57
0.05 0.04 0.07 0.11 0.19 0.41 0.48 0.82 1.32 1.71 1.83 1.46 1.37 1.28 1.35 1.58 1.63 1.59 1.61 1.72 1.89 2.06 2.37 2.67 2.95 3.20 3.35 3.41 3.45 3.50 3.33 3.22 3.18 3.04 2.73 2.44 2.28 2.16 2.01 2.07 2.27 2.28 2.16 2.10 2.12 2.31 2.44 2.43 2.38
0.04 0.07 0.13 0.20 0.37 0.71 0.62 0.73 1.24 1.63 1.48 1.28 1.23 1.05 1.16 1.36 1.45 1.51 1.59 1.72 1.85 2.16 2.51 2.79 2.98 3.17 3.21 2.98 2.86 2.83 2.84 2.87 2.79 2.59 2.37 2.11 2.00 1.90 1.75 1.83 2.00 2.02 2.00 1.99 1.96 2.02 2.13 2.18 2.23
0.08 0.17 0.56 0.93 1.24 1.14 0.72 0.83 1.41 1.29 0.95 0.89 0.99 0.97 0.97 1.04 1.18 1.30 1.49 1.71 1.88 1.98 2.09 2.51 2.90 3.04 2.93 2.67 2.48 2.38 2.45 2.53 2.43 2.27 2.19 2.05 1.84 1.69 1.64 1.68 1.74 1.75 1.78 1.80 1.86 1.89 1.94 2.09 2.17
0.13 0.24 0.70 0.96 1.00 0.99 0.79 1.19 1.68 1.29 0.87 0.71 0.81 0.83 0.74 0.69 0.67 0.76 0.94 1.06 1.15 1.18 1.24 1.39 1.66 1.90 1.99 1.86 1.83 1.85 1.89 1.92 1.88 1.99 1.88 1.85 1.74 1.59 1.57 1.51 1.49 1.52 1.55 1.59 1.80 1.83 1.90 2.03 2.10
0.24 0.28 0.30 0.50 0.69 1.04 1.04 1.22 1.29 1.05 0.84 0.78 0.88 0.81 0.65 0.60 0.56 0.62 0.72 0.73 0.83 0.88 0.94 1.08 1.29 1.49 1.52 1.49 1.49 1.53 1.54 1.56 1.57 1.61 1.55 1.54 1.57 1.49 1.48 1.49 1.54 1.50 1.51 1.58 1.69 1.71 1.71 1.87 1.92
0.20 0.28 0.43 0.68 0.91 1.05 1.11 1.39 1.53 1.37 1.14 0.99 0.95 0.82 0.62 0.52 0.50 0.57 0.67 0.67 0.78 0.94 1.10 1.23 1.32 1.38 1.36 1.33 1.32 1.24 1.34 1.35 1.40 1.36 1.28 1.27 1.33 1.34 1.31 1.33 1.37 1.41 1.39 1.42 1.57 1.59 1.63 1.75 1.80
0.23 0.30 0.46 0.64 0.70 0.90 1.25 1.34 1.06 1.01 1.03 1.08 1.09 0.92 0.66 0.51 0.46 0.52 0.65 0.71 0.79 0.91 1.04 1.17 1.26 1.33 1.29 1.24 1.28 1.31 1.32 1.32 1.30 1.25 1.17 1.22 1.27 1.27 1.22 1.24 1.32 1.35 1.37 1.44 1.50 1.47 1.57 1.61 1.62
0.22 0.32 0.48 0.71 0.77 0.81 0.95 1.05 0.64 0.63 0.75 0.85 0.88 0.72 0.54 0.47 0.45 0.52 0.62 0.67 0.79 0.89 0.94 0.95 1.03 1.19 1.21 1.21 1.30 1.42 1.39 1.36 1.26 1.15 1.10 1.14 1.17 1.18 1.19 1.25 1.29 1.25 1.30 1.42 1.47 1.48 1.55 1.59 1.57

GEFSSGP_prec_meanprecacc_228.txt.gz
Total_Precipitation_Accumulation
0.02 0.07 0.24 0.43 0.80 1.32 1.37 0.88 0.72 0.48 0.39 0.40 0.32 0.29 0.38 0.57 0.78 1.10 0.61 0.41 0.25 0.23 0.32 0.44 0.44 0.39 0.42 0.48 0.62 0.69 0.73 0.86 0.93 0.94 1.00 1.02 1.04 1.01 0.92 0.88 0.84 0.84 0.78 0.67 0.56 0.50 0.50 0.48 0.48
0.03 0.08 0.24 0.45 1.00 1.57 1.30 0.65 0.46 0.37 0.33 0.37 0.35 0.35 0.51 0.53 0.41 0.45 0.39 0.32 0.19 0.17 0.22 0.27 0.35 0.34 0.33 0.40 0.50 0.61 0.63 0.64 0.68 0.80 0.88 0.89 0.92 0.91 0.85 0.80 0.79 0.78 0.71 0.61 0.47 0.42 0.42 0.38 0.38
0.02 0.08 0.23 0.49 0.90 1.15 0.92 0.53 0.36 0.29 0.35 0.48 0.51 0.42 0.60 0.56 0.43 0.43 0.33 0.20 0.14 0.14 0.20 0.25 0.28 0.27 0.26 0.30 0.40 0.54 0.57 0.55 0.61 0.71 0.74 0.77 0.79 0.81 0.77 0.76 0.78 0.74 0.65 0.56 0.45 0.38 0.34 0.30 0.29
0.02 0.10 0.22 0.41 0.56 0.53 0.50 0.40 0.31 0.31 0.34 0.46 0.56 0.56 0.62 0.45 0.30 0.30 0.25 0.14 0.08 0.12 0.19 0.20 0.20 0.20 0.24 0.28 0.37 0.49 0.52 0.57 0.63 0.66 0.68 0.76 0.84 0.84 0.73 0.73 0.71 0.67 0.61 0.52 0.44 0.37 0.30 0.30 0.29
0.03 0.10 0.21 0.39 0.47 0.44 0.37 0.35 0.32 0.39 0.44 0.52 0.57 0.76 0.77 0.52 0.35 0.26 0.23 0.15 0.07 0.10 0.15 0.16 0.19 0.18 0.22 0.29 0.42 0.53 0.58 0.59 0.55 0.59 0.73 0.84 0.88 0.85 0.77 0.70 0.63 0.58 0.52 0.44 0.44 0.40 0.38 0.35 0.34
0.03 0.06 0.15 0.29 0.37 0.39 0.34 0.29 0.25 0.33 0.49 0.65 0.71 0.82 0.87 0.68 0.49 0.35 0.24 0.19 0.14 0.11 0.16 0.21 0.23 0.21 0.21 0.26 0.34 0.46 0.51 0.54 0.58 0.65 0.71 0.72 0.72 0.70 0.68 0.62 0.60 0.55 0.50 0.45 0.43 0.41 0.40 0.44 0.44
0.02 0.05 0.09 0.20 0.29 0.28 0.26 0.29 0.25 0.29 0.47 0.67 0.70 0.93 1.02 0.91 0.65 0.45 0.35 0.36 0.36 0.21 0.19 0.24 0.29 0.30 0.29 0.33 0.42 0.50 0.53 0.61 0.67 0.69 0.69 0.67 0.66 0.64 0.61 0.58 0.58 0.53 0.50 0.44 0.44 0.40 0.39 0.44 0.47
0.01 0.03 0.05 0.11 0.18 0.25 0.21 0.23 0.24 0.31 0.35 0.47 0.57 0.81 1.06 0.92 0.67 0.64 0.74 0.71 0.74 0.53 0.37 0.34 0.42 0.51 0.45 0.41 0.49 0.57 0.59 0.62 0.66 0.70 0.72 0.76 0.75 0.69 0.66 0.60 0.60 0.58 0.56 0.53 0.53 0.49 0.47 0.50 0.51
0.01 0.02 0.04 0.07 0.11 0.16 0.14 0.21 0.23 0.20 0.26 0.34 0.47 0.65 0.86 0.78 0.72 0.93 1.19 1.05 1.00 0.83 0.59 0.45 0.41 0.54 0.62 0.57 0.54 0.64 0.67 0.69 0.76 0.89 0.91 0.99 1.11 1.01 1.00 0.80 0.83 0.85 0.85 0.84 0.83 0.76 0.71 0.64 0.60
0.00 0.02 0.03 0.04 0.05 0.08 0.12 0.18 0.20 0.24 0.44 0.67 0.79 0.84 0.93 1.07 1.09 1.23 1.31 1.17 1.09 1.02 0.80 0.65 0.56 0.53 0.61 0.63 0.79 1.00 0.96 0.99 1.14 1.35 1.35 1.52 1.62 1.53 1.06 1.04 1.27 1.44 1.49 1.41 1.42 1.36 1.13 0.95 0.92
0.00 0.02 0.03 0.02 0.03 0.05 0.09 0.11 0.16 0.26 0.61 0.95 1.15 1.20 1.21 1.39 1.56 1.65 1.69 1.63 1.45 1.34 1.05 0.82 0.77 0.77 0.77 0.92 0.92 1.09 1.30 1.48 1.55 1.56 1.59 1.76 1.66 1.40 1.16 1.24 1.43 1.60 1.69 1.81 2.07 2.08 1.76 1.75 1.83
0.00 0.01 0.02 0.02 0.02 0.03 0.06 0.08 0.17 0.39 0.77 0.92 1.10 1.21 1.21 1.59 1.74 1.76 2.16 2.20 1.79 1.50 1.36 1.20 1.10 1.09 1.15 1.07 1.17 1.18 1.22 1.37 1.54 1.64 1.63 1.75 1.88 1.77 1.63 1.73 1.75 1.89 2.05 2.45 2.43 2.58 2.45 2.23 1.97
0.00 0.00 0.00 0.01 0.01 0.02 0.04 0.09 0.17 0.37 0.58 0.67 0.85 0.96 0.97 1.53 1.86 2.08 2.57 2.51 2.20 1.95 1.75 1.56 1.55 1.61 1.57 1.52 1.54 1.40 1.41 1.48 1.59 1.69 1.82 1.88 1.95 1.94 1.94 2.02 2.08 1.85 1.97 2.27 2.53 2.46 2.63 2.66 2.43
0.00 0.01 0.01 0.01 0.02 0.03 0.04 0.11 0.22 0.42 0.55 0.77 0.78 0.93 1.14 1.52 1.80 2.22 2.56 2.80 2.63 2.30 2.03 1.87 1.83 1.92 1.99 1.92 1.96 1.89 1.63 1.71 1.67 1.86 1.91 1.99 2.06 2.15 2.26 2.28 2.25 2.00 1.99 2.23 2.45 2.37 2.71 2.65 2.61
0.01 0.02 0.04 0.03 0.04 0.05 0.07 0.23 0.44 0.55 0.69 0.85 0.98 1.07 1.28 1.62 2.10 2.38 2.65 2.94 2.93 2.78 2.57 2.33 2.20 2.35 2.56 2.62 2.52 2.32 2.08 1.88 1.89 1.99 2.01 2.08 2.09 2.29 2.28 2.22 2.23 2.20 2.11 2.30 2.42 2.48 2.63 2.48 2.39
0.01 0.03 0.10 0.10 0.07 0.08 0.13 0.51 0.64 0.53 0.76 0.96 1.05 1.28 1.58 1.96 2.39 2.88 3.03 2.90 2.90 3.00 2.93 2.61 2.38 2.81 3.15 3.17 3.06 2.79 2.48 2.19 2.06 2.09 2.07 2.17 2.22 2.33 2.48 2.27 2.17 2.38 2.35 2.49 2.78 2.75 2.87 2.96 2.88
0.01 0.05 0.10 0.15 0.10 0.10 0.23 0.69 0.65 0.48 0.63 0.83 1.06 1.31 1.73 2.24 2.59 2.76 2.80 2.95 3.07 3.16 3.11 2.97 3.02 3.14 3.28 3.38 3.43 3.15 2.87 2.58 2.29 2.13 2.07 2.12 2.22 2.43 2.76 2.61 2.59 2.57 2.59 2.63 2.35 2.92 3.23 3.26 3.13
0.01 0.04 0.10 0.15 0.13 0.16 0.27 0.52 0.59 0.54 0.68 0.88 1.21 1.43 1.58 1.96 2.40 2.51 2.61 3.06 3.14 3.30 3.40 3.28 3.37 3.50 3.76 3.98 4.11 3.67 3.24 2.88 2.58 2.35 2.33 2.37 2.55 2.68 2.93 2.74 2.71 2.68 2.83 2.80 2.85 3.26 3.25 3.00 3.02
0.01 0.04 0.11 0.15 0.14 0.21 0.31 0.52 0.70 0.72 0.88 1.25 1.46 1.46 1.45 1.74 2.23 2.59 2.83 3.01 3.35 3.52 3.64 3.61 3.79 4.14 4.44 4.30 3.96 3.72 3.39 3.13 2.91 2.66 2.48 2.50 2.47 2.62 2.91 2.78 2.99 2.91 2.78 2.79 2.84 3.10 3.16 2.87 3.05
0.02 0.06 0.14 0.16 0.16 0.26 0.40 0.63 0.80 0.93 1.18 1.32 1.24 1.25 1.41 1.79 2.28 2.65 2.93 3.08 3.33 3.59 3.98 4.06 4.20 4.50 4.60 4.44 4.32 4.14 3.95 3.52 3.36 3.19 2.95 2.60 2.42 2.50 2.59 2.93 2.75 2.75 2.80 2.75 2.88 3.11 2.96 2.58 2.98
0.04 0.07 0.13 0.14 0.21 0.36 0.46 0.86 1.04 1.16 1.32 1.32 1.26 1.47 1.49 1.58 2.00 2.28 2.41 2.60 2.78 2.91 3.14 3.40 3.84 4.31 4.43 4.49 4.41 4.33 4.30 3.76 3.47 3.29 3.04 2.70 2.45 2.39 2.52 2.68 2.73 2.69 2.59 2.63 2.84 2.91 2.92 2.75 2.81
0.06 0.06 0.06 0.10 0.19 0.46 0.53 1.08 1.31 1.50 1.58 1.43 1.40 1.36 1.34 1.58 1.91 1.93 1.80 1.95 2.21 2.20 2.50 2.87 3.29 3.61 3.82 3.94 3.91 3.88 3.77 3.53 3.44 3.32 2.92 2.65 2.43 2.35 2.40 2.46 2.51 2.51 2.37 2.43 2.31 2.41 2.82 2.91 2.65
0.05 0.04 0.07 0.11 0.19 0.41 0.48 0.82 1.32 1.71 1.83 1.46 1.37 1.28 1.35 1.58 1.63 1.59 1.62 1.72 1.89 2.06 2.37 2.67 2.95 3.20 3.36 3.44 3.48 3.51 3.35 3.25 3.21 3.07 2.77 2.49 2.32 2.19 2.03 2.09 2.31 2.34 2.21 2.15 2.18 2.37 2.50 2.50 2.45
0.04 0.07 0.13 0.20 0.37 0.71 0.62 0.73 1.24 1.63 1.48 1.28 1.23 1.05 1.16 1.36 1.45 1.51 1.59 1.72 1.86 2.16 2.51 2.79 2.98 3.17 3.22 2.99 2.87 2.85 2.86 2.89 2.82 2.62 2.40 2.15 2.03 1.92 1.77 1.85 2.05 2.08 2.07 2.05 2.02 2.08 2.18 2.23 2.28
0.08 0.17 0.56 0.93 1.24 1.14 0.72 0.83 1.41 1.29 0.95 0.89 0.99 0.97 0.97 1.04 1.18 1.30 1.49 1.71 1.88 1.99 2.09 2.51 2.90 3.04 2.94 2.68 2.50 2.40 2.47 2.55 2.46 2.30 2.21 2.08 1.87 1.72 1.68 1.71 1.79 1.80 1.84 1.85 1.91 1.94 1.99 2.14 2.23
0.13 0.24 0.70 0.96 1.00 0.99 0.79 1.19 1.68 1.29 0.87 0.71 0.81 0.83 0.74 0.69 0.67 0.76 0.94 1.06 1.16 1.18 1.24 1.40 1.66 1.91 2.00 1.87 1.85 1.87 1.91 1.95 1.93 2.03 1.90 1.87 1.76 1.61 1.61 1.55 1.53 1.57 1.61 1.63 1.86 1.88 1.97 2.09 2.15
0.24 0.28 0.30 0.50 0.69 1.04 1.04 1.22 1.29 1.05 0.84 0.78 0.88 0.81 0.65 0.60 0.56 0.62 0.72 0.73 0.83 0.88 0.94 1.08 1.30 1.50 1.53 1.51 1.51 1.55 1.57 1.58 1.60 1.63 1.57 1.55 1.59 1.50 1.49 1.52 1.59 1.55 1.56 1.64 1.76 1.76 1.78 1.95 1.99
0.20 0.28 0.43 0.68 0.91 1.05 1.12 1.39 1.53 1.37 1.14 0.99 0.95 0.82 0.62 0.52 0.51 0.57 0.68 0.67 0.78 0.94 1.10 1.23 1.32 1.39 1.37 1.35 1.33 1.26 1.36 1.37 1.41 1.38 1.30 1.29 1.35 1.35 1.33 1.36 1.41 1.46 1.44 1.48 1.63 1.64 1.69 1.83 1.87
0.23 0.30 0.46 0.64 0.70 0.90 1.25 1.34 1.06 1.01 1.03 1.09 1.10 0.92 0.66 0.51 0.47 0.52 0.65 0.71 0.79 0.91 1.04 1.17 1.27 1.34 1.30 1.25 1.29 1.33 1.34 1.34 1.32 1.27 1.19 1.24 1.29 1.29 1.25 1.28 1.36 1.39 1.41 1.49 1.57 1.52 1.63 1.66 1.68
0.22 0.32 0.48 0.71 0.77 0.81 0.95 1.05 0.64 0.63 0.75 0.86 0.89 0.72 0.54 0.47 0.45 0.52 0.63 0.67 0.79 0.89 0.94 0.95 1.04 1.20 1.22 1.22 1.32 1.44 1.42 1.39 1.29 1.18 1.13 1.16 1.19 1.21 1.22 1.29 1.32 1.27 1.33 1.46 1.53 1.52 1.59 1.64 1.62

GEFSSGP_prec_meanprecacc_234.txt.gz
Total_Precipitation_Accumulation
0.02 0.07 0.24 0.43 0.82 1.35 1.39 0.89 0.73 0.50 0.40 0.40 0.32 0.30 0.38 0.58 0.82 1.20 0.77 0.52 0.34 0.32 0.41 0.52 0.56 0.52 0.54 0.60 0.73 0.81 0.87 1.00 1.06 1.08 1.16 1.20 1.23 1.20 1.09 1.05 1.01 1.00 0.93 0.82 0.72 0.70 0.73 0.65 0.61
0.03 0.08 0.24 0.46 1.03 1.60 1.31 0.66 0.47 0.37 0.33 0.37 0.35 0.35 0.51 0.54 0.43 0.53 0.51 0.42 0.26 0.25 0.31 0.32 0.39 0.40 0.41 0.48 0.58 0.69 0.72 0.75 0.80 0.94 1.04 1.06 1.10 1.06 0.98 0.91 0.89 0.87 0.84 0.76 0.63 0.62 0.59 0.51 0.49
0.03 0.08 0.24 0.50 0.92 1.16 0.93 0.54 0.36 0.29 0.35 0.48 0.51 0.42 0.60 0.58 0.45 0.49 0.42 0.24 0.17 0.19 0.26 0.29 0.32 0.32 0.32 0.36 0.46 0.60 0.65 0.66 0.74 0.83 0.87 0.91 0.92 0.92 0.87 0.85 0.87 0.84 0.78 0.72 0.59 0.50 0.44 0.39 0.36
0.02 0.11 0.22 0.42 0.56 0.53 0.50 0.40 0.31 0.31 0.34 0.46 0.56 0.56 0.64 0.47 0.33 0.33 0.28 0.15 0.09 0.16 0.23 0.23 0.25 0.25 0.29 0.32 0.42 0.53 0.59 0.66 0.73 0.75 0.78 0.86 0.93 0.93 0.82 0.82 0.80 0.78 0.74 0.63 0.54 0.44 0.36 0.35 0.34
0.04 0.10 0.21 0.39 0.47 0.44 0.37 0.35 0.32 0.40 0.44 0.52 0.57 0.77 0.78 0.55 0.37 0.27 0.24 0.16 0.07 0.12 0.17 0.18 0.22 0.22 0.25 0.31 0.44 0.56 0.63 0.68 0.64 0.69 0.83 0.91 0.95 0.92 0.85 0.79 0.71 0.67 0.59 0.50 0.51 0.46 0.42 0.39 0.37
0.03 0.06 0.16 0.29 0.37 0.39 0.34 0.29 0.25 0.34 0.49 0.65 0.71 0.82 0.88 0.70 0.50 0.36 0.25 0.20 0.15 0.11 0.17 0.22 0.24 0.23 0.24 0.28 0.37 0.49 0.54 0.59 0.63 0.72 0.79 0.79 0.79 0.77 0.75 0.70 0.68 0.62 0.56 0.51 0.48 0.44 0.44 0.47 0.47
0.02 0.05 0.10 0.20 0.29 0.28 0.26 0.29 0.25 0.29 0.48 0.67 0.70 0.94 1.03 0.92 0.66 0.45 0.36 0.36 0.36 0.23 0.21 0.26 0.31 0.31 0.31 0.36 0.44 0.53 0.57 0.65 0.71 0.74 0.74 0.72 0.71 0.69 0.67 0.65 0.65 0.61 0.56 0.49 0.48 0.43 0.42 0.45 0.48
0.02 0.04 0.06 0.11 0.18 0.25 0.21 0.23 0.25 0.32 0.36 0.47 0.57 0.82 1.07 0.95 0.68 0.65 0.76 0.73 0.79 0.56 0.39 0.37 0.45 0.55 0.49 0.45 0.52 0.59 0.61 0.64 0.70 0.74 0.77 0.82 0.81 0.74 0.71 0.65 0.66 0.64 0.61 0.57 0.56 0.51 0.48 0.51 0.51
0.01 0.03 0.05 0.07 0.11 0.16 0.14 0.21 0.23 0.21 0.26 0.34 0.47 0.65 0.86 0.81 0.74 0.94 1.21 1.08 1.07 0.87 0.61 0.47 0.44 0.57 0.66 0.61 0.58 0.67 0.70 0.72 0.80 0.93 0.96 1.06 1.18 1.07 1.07 0.85 0.87 0.89 0.88 0.87 0.85 0.78 0.71 0.64 0.60
0.01 0.04 0.04 0.04 0.05 0.08 0.12 0.18 0.20 0.24 0.44 0.68 0.79 0.85 0.94 1.16 1.14 1.23 1.31 1.20 1.14 1.07 0.82 0.66 0.58 0.56 0.64 0.66 0.83 1.05 1.00 1.04 1.20 1.44 1.44 1.62 1.70 1.61 1.12 1.09 1.31 1.47 1.51 1.43 1.44 1.38 1.15 0.98 0.95
0.00 0.03 0.03 0.02 0.03 0.05 0.09 0.11 0.16 0.26 0.61 0.95 1.15 1.20 1.23 1.44 1.62 1.67 1.71 1.67 1.53 1.40 1.06 0.83 0.78 0.80 0.79 0.94 0.94 1.12 1.33 1.53 1.60 1.61 1.65 1.82 1.71 1.46 1.22 1.29 1.47 1.62 1.72 1.84 2.09 2.11 1.80 1.78 1.86
0.00 0.01 0.02 0.02 0.02 0.03 0.06 0.08 0.17 0.39 0.77 0.92 1.10 1.22 1.26 1.66 1.77 1.77 2.17 2.22 1.80 1.51 1.37 1.21 1.11 1.11 1.17 1.08 1.19 1.21 1.25 1.40 1.57 1.68 1.67 1.79 1.96 1.86 1.72 1.81 1.80 1.94 2.11 2.50 2.46 2.62 2.47 2.24 1.97
0.00 0.00 0.00 0.01 0.01 0.02 0.04 0.09 0.17 0.37 0.58 0.67 0.85 0.97 1.03 1.57 1.88 2.10 2.58 2.52 2.21 1.96 1.77 1.57 1.57 1.63 1.59 1.55 1.57 1.43 1.43 1.51 1.61 1.72 1.85 1.92 2.00 2.01 2.01 2.10 2.16 1.90 2.02 2.32 2.58 2.49 2.64 2.67 2.45
0.00 0.01 0.01 0.01 0.02 0.03 0.04 0.11 0.22 0.42 0.55 0.77 0.78 0.93 1.14 1.53 1.82 2.23 2.56 2.80 2.63 2.31 2.04 1.88 1.85 1.95 2.03 1.97 2.00 1.93 1.68 1.76 1.72 1.89 1.95 2.04 2.10 2.20 2.33 2.35 2.33 2.05 2.03 2.29 2.49 2.40 2.74 2.68 2.63
0.01 0.02 0.04 0.03 0.04 0.05 0.07 0.24 0.44 0.55 0.69 0.85 0.98 1.07 1.28 1.62 2.11 2.38 2.65 2.94 2.93 2.78 2.57 2.34 2.21 2.37 2.60 2.68 2.58 2.38 2.15 1.96 1.96 2.04 2.07 2.14 2.14 2.34 2.34 2.28 2.29 2.25 2.14 2.36 2.47 2.51 2.67 2.52 2.41
0.01 0.03 0.10 0.10 0.07 0.08 0.14 0.53 0.64 0.53 0.76 0.96 1.05 1.28 1.58 1.96 2.39 2.88 3.04 2.90 2.91 3.01 2.94 2.62 2.39 2.83 3.18 3.22 3.13 2.87 2.55 2.26 2.12 2.15 2.14 2.24 2.27 2.37 2.53 2.32 2.22 2.42 2.38 2.54 2.83 2.81 2.93 3.01 2.90
0.02 0.06 0.10 0.15 0.10 0.10 0.24 0.70 0.65 0.48 0.63 0.83 1.06 1.31 1.73 2.24 2.60 2.76 2.81 2.95 3.08 3.16 3.12 2.99 3.04 3.16 3.30 3.41 3.47 3.21 2.94 2.65 2.36 2.20 2.14 2.19 2.27 2.46 2.81 2.66 2.64 2.62 2.64 2.68 2.40 2.99 3.30 3.32 3.18
0.02 0.05 0.10 0.15 0.13 0.16 0.27 0.53 0.61 0.54 0.68 0.88 1.21 1.43 1.58 1.96 2.41 2.51 2.62 3.07 3.14 3.31 3.41 3.29 3.38 3.51 3.78 4.00 4.15 3.72 3.29 2.95 2.64 2.41 2.38 2.43 2.59 2.72 2.99 2.81 2.76 2.72 2.88 2.86 2.90 3.33 3.33 3.07 3.08
0.02 0.05 0.12 0.15 0.14 0.21 0.31 0.52 0.71 0.72 0.88 1.25 1.46 1.46 1.45 1.74 2.23 2.59 2.84 3.02 3.35 3.52 3.65 3.62 3.81 4.16 4.48 4.34 4.00 3.76 3.45 3.20 2.96 2.70 2.53 2.55 2.51 2.66 2.98 2.85 3.06 2.97 2.86 2.85 2.88 3.16 3.23 2.94 3.11
0.02 0.06 0.14 0.16 0.16 0.26 0.40 0.63 0.80 0.93 1.18 1.32 1.24 1.25 1.41 1.79 2.28 2.65 2.93 3.08 3.33 3.59 3.98 4.07 4.21 4.53 4.63 4.47 4.36 4.16 3.98 3.55 3.39 3.22 2.99 2.64 2.45 2.52 2.62 2.97 2.80 2.81 2.88 2.82 2.94 3.18 3.05 2.66 3.06
0.04 0.07 0.13 0.14 0.21 0.36 0.46 0.86 1.05 1.17 1.33 1.32 1.26 1.47 1.49 1.58 2.00 2.28 2.41 2.60 2.78 2.91 3.14 3.40 3.85 4.33 4.45 4.51 4.43 4.35 4.32 3.79 3.50 3.32 3.08 2.74 2.48 2.41 2.55 2.71 2.76 2.74 2.65 2.72 2.92 2.97 2.98 2.82 2.88
0.06 0.06 0.06 0.10 0.19 0.46 0.53 1.09 1.32 1.53 1.60 1.43 1.40 1.36 1.34 1.58 1.91 1.93 1.80 1.95 2.21 2.20 2.51 2.89 3.32 3.65 3.85 3.95 3.92 3.90 3.79 3.57 3.49 3.38 2.96 2.71 2.46 2.37 2.42 2.48 2.54 2.57 2.43 2.52 2.37 2.48 2.89 2.99 2.73
0.05 0.05 0.07 0.11 0.19 0.41 0.48 0.82 1.33 1.72 1.85 1.47 1.37 1.28 1.35 1.58 1.63 1.59 1.62 1.72 1.89 2.06 2.38 2.68 2.97 3.24 3.39 3.46 3.50 3.55 3.39 3.28 3.24 3.10 2.83 2.56 2.36 2.21 2.04 2.12 2.35 2.40 2.27 2.21 2.23 2.43 2.55 2.57 2.52
0.04 0.07 0.14 0.20 0.37 0.71 0.62 0.74 1.25 1.66 1.50 1.29 1.23 1.05 1.16 1.36 1.45 1.51 1.60 1.72 1.86 2.16 2.51 2.79 2.99 3.19 3.24 3.02 2.91 2.89 2.90 2.94 2.87 2.68 2.46 2.20 2.07 1.95 1.80 1.88 2.10 2.13 2.12 2.10 2.07 2.14 2.23 2.28 2.34
0.08 0.17 0.56 0.93 1.24 1.14 0.72 0.83 1.42 1.31 0.96 0.89 0.99 0.97 0.97 1.04 1.18 1.31 1.50 1.71 1.88 1.99 2.09 2.51 2.91 3.06 2.96 2.70 2.52 2.42 2.50 2.58 2.50 2.34 2.25 2.12 1.90 1.75 1.72 1.76 1.84 1.83 1.88 1.88 1.95 1.99 2.04 2.18 2.28
0.13 0.24 0.70 0.96 1.01 0.99 0.80 1.20 1.68 1.29 0.87 0.71 0.81 0.83 0.74 0.69 0.67 0.76 0.94 1.06 1.16 1.18 1.24 1.40 1.66 1.92 2.01 1.89 1.86 1.90 1.94 1.98 1.97 2.10 1.96 1.92 1.79 1.63 1.64 1.59 1.56 1.60 1.63 1.65 1.91 1.93 2.02 2.15 2.21
0.24 0.28 0.30 0.50 0.69 1.04 1.04 1.22 1.30 1.06 0.84 0.78 0.88 0.81 0.65 0.60 0.57 0.63 0.73 0.74 0.84 0.88 0.95 1.08 1.30 1.52 1.54 1.52 1.52 1.56 1.59 1.61 1.65 1.71 1.63 1.60 1.63 1.53 1.53 1.55 1.62 1.57 1.58 1.67 1.82 1.83 1.83 2.01 2.05
0.20 0.28 0.43 0.68 0.91 1.06 1.12 1.40 1.57 1.39 1.15 1.00 0.95 0.82 0.63 0.53 0.52 0.59 0.68 0.68 0.78 0.95 1.10 1.23 1.33 1.40 1.38 1.36 1.34 1.27 1.38 1.39 1.45 1.42 1.35 1.34 1.41 1.40 1.37 1.40 1.45 1.48 1.47 1.52 1.69 1.71 1.76 1.90 1.94
0.23 0.30 0.46 0.64 0.70 0.90 1.25 1.35 1.10 1.04 1.04 1.09 1.10 0.92 0.66 0.53 0.48 0.54 0.65 0.71 0.79 0.91 1.04 1.17 1.27 1.35 1.30 1.25 1.31 1.36 1.37 1.37 1.36 1.31 1.24 1.29 1.35 1.35 1.30 1.32 1.40 1.43 1.45 1.54 1.63 1.58 1.68 1.72 1.75
0.22 0.32 0.48 0.71 0.77 0.81 0.96 1.06 0.67 0.66 0.76 0.86 0.89 0.72 0.54 0.48 0.48 0.55 0.64 0.67 0.79 0.89 0.94 0.95 1.04 1.21 1.23 1.23 1.36 1.55 1.50 1.46 1.38 1.26 1.19 1.23 1.26 1.27 1.27 1.33 1.38 1.34 1.41 1.56 1.62 1.58 1.64 1.70 1.68

GEFSSGP_prec_meanprecacc_240.txt.gz
Total_Precipitation_Accumulation
0.03 0.09 0.27 0.48 0.87 1.40 1.41 0.91 0.74 0.51 0.40 0.42 0.33 0.30 0.39 0.59 0.84 1.28 0.92 0.65 0.38 0.35 0.46 0.60 0.69 0.70 0.73 0.77 0.91 0.98 1.01 1.12 1.17 1.22 1.30 1.36 1.38 1.31 1.20 1.18 1.15 1.12 1.05 0.97 0.88 0.85 0.87 0.77 0.74
0.04 0.11 0.27 0.48 1.08 1.63 1.33 0.69 0.48 0.37 0.34 0.37 0.35 0.35 0.51 0.54 0.45 0.60 0.64 0.52 0.28 0.27 0.34 0.36 0.45 0.50 0.54 0.62 0.70 0.78 0.81 0.85 0.93 1.12 1.22 1.23 1.24 1.18 1.11 1.04 1.00 0.98 0.96 0.94 0.86 0.82 0.75 0.64 0.61
0.05 0.11 0.26 0.54 0.97 1.17 0.95 0.55 0.36 0.29 0.35 0.48 0.51 0.42 0.61 0.59 0.47 0.55 0.50 0.28 0.18 0.21 0.28 0.32 0.35 0.36 0.37 0.41 0.51 0.68 0.74 0.73 0.82 0.92 0.95 1.01 1.02 1.01 0.96 0.93 0.96 0.96 0.98 1.01 0.87 0.74 0.62 0.53 0.49
0.04 0.12 0.23 0.44 0.58 0.53 0.50 0.40 0.32 0.31 0.35 0.46 0.56 0.56 0.65 0.49 0.34 0.36 0.31 0.16 0.10 0.17 0.25 0.25 0.27 0.27 0.30 0.34 0.46 0.58 0.65 0.71 0.78 0.79 0.85 0.93 1.00 1.00 0.88 0.89 0.91 0.95 0.97 0.87 0.74 0.61 0.52 0.50 0.45
0.04 0.10 0.22 0.41 0.48 0.44 0.37 0.36 0.32 0.40 0.44 0.52 0.57 0.77 0.81 0.58 0.38 0.29 0.27 0.17 0.08 0.12 0.18 0.19 0.23 0.23 0.26 0.33 0.46 0.59 0.69 0.73 0.69 0.73 0.89 0.98 1.02 1.00 0.97 0.94 0.91 0.91 0.83 0.69 0.65 0.59 0.54 0.48 0.46
0.04 0.07 0.17 0.32 0.39 0.39 0.34 0.29 0.25 0.34 0.49 0.65 0.71 0.83 0.91 0.74 0.53 0.40 0.28 0.22 0.17 0.13 0.18 0.23 0.25 0.24 0.24 0.30 0.40 0.52 0.59 0.65 0.69 0.78 0.85 0.88 0.85 0.83 0.88 0.87 0.84 0.78 0.70 0.60 0.56 0.52 0.50 0.52 0.52
0.02 0.06 0.11 0.24 0.31 0.29 0.27 0.29 0.25 0.30 0.48 0.67 0.70 0.95 1.05 0.98 0.72 0.49 0.40 0.39 0.40 0.27 0.25 0.27 0.31 0.32 0.32 0.37 0.48 0.59 0.62 0.72 0.80 0.84 0.84 0.80 0.77 0.74 0.74 0.72 0.72 0.67 0.60 0.51 0.52 0.47 0.45 0.49 0.52
0.02 0.04 0.07 0.13 0.19 0.25 0.21 0.23 0.25 0.32 0.36 0.47 0.58 0.83 1.08 1.00 0.78 0.68 0.79 0.76 0.82 0.62 0.46 0.39 0.47 0.56 0.50 0.46 0.55 0.63 0.68 0.73 0.80 0.84 0.86 0.89 0.87 0.79 0.76 0.68 0.68 0.66 0.63 0.59 0.58 0.54 0.51 0.54 0.55
0.01 0.05 0.07 0.09 0.12 0.17 0.15 0.21 0.23 0.21 0.26 0.34 0.47 0.66 0.87 0.83 0.78 0.96 1.22 1.10 1.12 0.95 0.67 0.50 0.46 0.59 0.68 0.62 0.60 0.70 0.74 0.77 0.85 0.98 1.00 1.10 1.22 1.09 1.09 0.86 0.89 0.91 0.91 0.89 0.88 0.81 0.75 0.68 0.64
0.01 0.05 0.05 0.04 0.05 0.09 0.12 0.18 0.20 0.24 0.44 0.68 0.80 0.86 0.95 1.17 1.15 1.24 1.32 1.21 1.15 1.11 0.88 0.72 0.63 0.59 0.66 0.67 0.84 1.07 1.02 1.06 1.22 1.45 1.47 1.64 1.72 1.62 1.13 1.12 1.34 1.50 1.54 1.46 1.47 1.40 1.17 1.01 0.98
0.01 0.04 0.04 0.03 0.03 0.05 0.09 0.11 0.16 0.26 0.61 0.95 1.16 1.23 1.26 1.45 1.62 1.67 1.71 1.67 1.53 1.42 1.11 0.89 0.83 0.84 0.82 0.96 0.95 1.13 1.35 1.54 1.62 1.62 1.67 1.84 1.73 1.47 1.24 1.32 1.51 1.66 1.75 1.87 2.12 2.14 1.82 1.82 1.90
0.00 0.01 0.02 0.02 0.02 0.03 0.06 0.08 0.17 0.39 0.77 0.92 1.11 1.25 1.30 1.68 1.78 1.78 2.17 2.22 1.82 1.53 1.41 1.29 1.18 1.16 1.21 1.11 1.21 1.22 1.26 1.42 1.58 1.70 1.69 1.82 2.00 1.89 1.75 1.85 1.83 1.97 2.13 2.53 2.49 2.66 2.51 2.28 2.02
0.00 0.01 0.01 0.01 0.01 0.02 0.04 0.09 0.17 0.37 0.58 0.67 0.86 1.01 1.06 1.58 1.89 2.11 2.59 2.53 2.21 1.97 1.80 1.63 1.62 1.67 1.62 1.57 1.60 1.45 1.45 1.53 1.63 1.75 1.88 1.94 2.04 2.04 2.04 2.13 2.18 1.92 2.04 2.34 2.61 2.52 2.67 2.70 2.49
0.00 0.01 0.01 0.01 0.02 0.03 0.04 0.11 0.22 0.42 0.56 0.77 0.78 0.93 1.15 1.55 1.83 2.24 2.57 2.81 2.64 2.32 2.06 1.92 1.90 2.00 2.07 2.01 2.03 1.96 1.70 1.78 1.74 1.92 1.98 2.07 2.14 2.22 2.35 2.38 2.35 2.07 2.06 2.31 2.52 2.43 2.77 2.71 2.67
0.01 0.02 0.04 0.03 0.04 0.05 0.07 0.25 0.45 0.56 0.69 0.86 0.98 1.07 1.29 1.64 2.12 2.39 2.65 2.95 2.94 2.78 2.59 2.37 2.25 2.42 2.66 2.73 2.63 2.41 2.17 1.97 1.98 2.06 2.11 2.18 2.18 2.36 2.37 2.31 2.32 2.27 2.16 2.37 2.50 2.55 2.70 2.55 2.44
0.01 0.04 0.10 0.11 0.08 0.09 0.15 0.55 0.67 0.55 0.77 0.96 1.05 1.28 1.58 1.96 2.40 2.89 3.04 2.90 2.91 3.01 2.95 2.64 2.43 2.88 3.25 3.28 3.20 2.91 2.57 2.28 2.15 2.18 2.18 2.28 2.31 2.42 2.58 2.36 2.25 2.46 2.40 2.56 2.88 2.85 2.96 3.05 2.95
0.03 0.06 0.11 0.15 0.11 0.11 0.24 0.72 0.70 0.52 0.65 0.83 1.07 1.31 1.73 2.24 2.60 2.76 2.81 2.95 3.08 3.17 3.14 3.01 3.08 3.20 3.35 3.45 3.53 3.26 2.98 2.69 2.39 2.23 2.17 2.23 2.32 2.51 2.86 2.71 2.69 2.67 2.68 2.72 2.44 3.03 3.33 3.36 3.21
0.03 0.05 0.11 0.16 0.13 0.17 0.28 0.54 0.63 0.62 0.78 0.91 1.21 1.43 1.59 1.96 2.41 2.52 2.62 3.07 3.14 3.31 3.42 3.32 3.41 3.54 3.80 4.03 4.19 3.78 3.34 2.99 2.69 2.45 2.42 2.47 2.64 2.77 3.03 2.85 2.79 2.76 2.90 2.89 2.94 3.37 3.35 3.10 3.11
0.02 0.05 0.13 0.16 0.15 0.21 0.32 0.53 0.73 0.80 0.96 1.27 1.47 1.47 1.45 1.74 2.23 2.59 2.84 3.02 3.35 3.53 3.66 3.65 3.84 4.18 4.49 4.36 4.04 3.82 3.52 3.26 3.03 2.76 2.58 2.60 2.56 2.71 3.02 2.88 3.09 3.00 2.88 2.87 2.91 3.18 3.25 2.97 3.15
0.02 0.07 0.15 0.18 0.17 0.28 0.42 0.64 0.82 1.03 1.25 1.34 1.26 1.26 1.41 1.79 2.29 2.66 2.93 3.09 3.34 3.60 4.01 4.10 4.25 4.55 4.64 4.49 4.38 4.21 4.04 3.62 3.45 3.27 3.03 2.67 2.47 2.55 2.65 2.99 2.81 2.83 2.90 2.84 2.97 3.19 3.06 2.68 3.10
0.04 0.08 0.13 0.15 0.22 0.37 0.47 0.88 1.07 1.25 1.38 1.37 1.29 1.49 1.50 1.58 2.01 2.28 2.41 2.60 2.79 2.93 3.18 3.46 3.92 4.37 4.47 4.53 4.45 4.39 4.37 3.85 3.57 3.37 3.11 2.77 2.51 2.43 2.57 2.73 2.77 2.76 2.67 2.75 2.95 3.00 3.01 2.86 2.94
0.06 0.06 0.07 0.11 0.20 0.47 0.54 1.11 1.35 1.56 1.66 1.53 1.45 1.39 1.35 1.59 1.92 1.94 1.80 1.96 2.21 2.22 2.53 2.95 3.37 3.68 3.87 3.97 3.95 3.94 3.85 3.69 3.60 3.43 3.00 2.74 2.49 2.38 2.44 2.51 2.56 2.59 2.46 2.54 2.39 2.51 2.93 3.04 2.80
0.05 0.05 0.08 0.12 0.20 0.42 0.49 0.83 1.35 1.75 1.90 1.53 1.44 1.31 1.37 1.59 1.63 1.60 1.62 1.73 1.90 2.07 2.39 2.69 2.98 3.25 3.40 3.48 3.53 3.59 3.46 3.44 3.35 3.15 2.86 2.59 2.38 2.23 2.06 2.14 2.37 2.41 2.29 2.23 2.26 2.46 2.60 2.62 2.60
0.05 0.08 0.14 0.21 0.38 0.72 0.63 0.74 1.27 1.67 1.53 1.32 1.27 1.08 1.18 1.37 1.45 1.51 1.60 1.73 1.86 2.16 2.52 2.79 3.00 3.20 3.25 3.03 2.92 2.91 2.94 2.99 2.92 2.72 2.49 2.23 2.11 1.98 1.81 1.89 2.11 2.15 2.14 2.12 2.10 2.17 2.28 2.34 2.39
0.08 0.17 0.57 0.95 1.26 1.15 0.73 0.84 1.43 1.34 1.00 0.93 1.02 1.00 0.99 1.05 1.19 1.31 1.50 1.71 1.89 1.99 2.09 2.51 2.91 3.07 2.97 2.72 2.53 2.43 2.52 2.62 2.53 2.37 2.28 2.15 1.94 1.78 1.74 1.77 1.86 1.86 1.91 1.91 1.99 2.04 2.09 2.24 2.33
0.13 0.24 0.70 0.97 1.01 0.99 0.80 1.21 1.72 1.34 0.90 0.75 0.85 0.85 0.75 0.70 0.68 0.77 0.96 1.07 1.17 1.19 1.24 1.40 1.67 1.93 2.02 1.90 1.88 1.92 1.97 2.01 1.99 2.13 1.99 1.95 1.83 1.67 1.68 1.62 1.59 1.64 1.66 1.68 1.95 1.98 2.08 2.22 2.28
0.24 0.28 0.30 0.50 0.69 1.04 1.05 1.24 1.35 1.13 0.88 0.84 0.92 0.84 0.67 0.62 0.58 0.65 0.75 0.75 0.85 0.89 0.95 1.09 1.31 1.53 1.55 1.54 1.55 1.59 1.62 1.65 1.66 1.73 1.67 1.64 1.67 1.58 1.58 1.58 1.66 1.61 1.62 1.71 1.87 1.89 1.92 2.09 2.13
0.20 0.28 0.43 0.68 0.91 1.06 1.13 1.42 1.60 1.44 1.18 1.04 1.00 0.88 0.67 0.55 0.53 0.60 0.70 0.68 0.79 0.95 1.11 1.24 1.34 1.41 1.40 1.37 1.36 1.29 1.41 1.42 1.46 1.43 1.38 1.37 1.43 1.45 1.44 1.46 1.51 1.55 1.54 1.59 1.77 1.80 1.85 1.97 2.00
0.23 0.30 0.46 0.64 0.70 0.91 1.27 1.38 1.15 1.11 1.09 1.14 1.13 0.96 0.72 0.55 0.49 0.55 0.66 0.73 0.80 0.92 1.06 1.18 1.28 1.36 1.32 1.28 1.34 1.38 1.39 1.40 1.38 1.34 1.27 1.32 1.39 1.41 1.39 1.42 1.49 1.53 1.55 1.63 1.73 1.69 1.78 1.81 1.83
0.22 0.33 0.48 0.71 0.77 0.81 0.97 1.09 0.72 0.73 0.85 0.91 0.92 0.74 0.58 0.51 0.49 0.57 0.69 0.73 0.86 0.93 0.96 0.96 1.05 1.23 1.25 1.26 1.38 1.56 1.52 1.48 1.41 1.29 1.23 1.28 1.31 1.34 1.35 1.43 1.50 1.46 1.52 1.68 1.76 1.69 1.74 1.79 1.76

GEFSSGP_prec_meanprecacc_246.txt.gz
Total_Precipitation_Accumulation
0.04 0.10 0.29 0.49 0.88 1.41 1.42 0.92 0.75 0.51 0.41 0.43 0.34 0.31 0.39 0.59 0.85 1.30 0.97 0.72 0.45 0.43 0.57 0.75 0.82 0.81 0.82 0.87 1.08 1.17 1.18 1.24 1.28 1.33 1.42 1.49 1.50 1.41 1.29 1.27 1.23 1.21 1.16 1.08 1.00 0.98 0.98 0.88 0.87
0.05 0.11 0.27 0.49 1.09 1.63 1.34 0.70 0.48 0.38 0.34 0.37 0.35 0.35 0.51 0.55 0.46 0.62 0.68 0.58 0.33 0.33 0.42 0.47 0.55 0.58 0.64 0.74 0.81 0.90 0.97 0.99 1.09 1.30 1.40 1.43 1.38 1.29 1.22 1.14 1.10 1.08 1.08 1.07 0.99 0.97 0.89 0.76 0.74
0.06 0.12 0.26 0.55 0.97 1.18 0.96 0.56 0.37 0.29 0.35 0.48 0.51 0.42 0.61 0.60 0.48 0.56 0.53 0.33 0.21 0.24 0.33 0.38 0.41 0.42 0.45 0.49 0.57 0.75 0.86 0.93 1.04 1.14 1.19 1.19 1.16 1.15 1.08 1.04 1.07 1.06 1.11 1.15 1.02 0.89 0.76 0.66 0.60
0.04 0.13 0.23 0.44 0.58 0.53 0.50 0.41 0.32 0.31 0.35 0.46 0.56 0.56 0.66 0.50 0.35 0.38 0.35 0.19 0.12 0.20 0.28 0.29 0.30 0.30 0.35 0.39 0.49 0.62 0.72 0.81 0.89 0.92 0.97 1.07 1.16 1.14 1.03 1.04 1.08 1.14 1.16 1.07 0.93 0.78 0.68 0.64 0.55
0.04 0.11 0.22 0.41 0.48 0.45 0.37 0.36 0.33 0.40 0.44 0.52 0.57 0.78 0.82 0.60 0.39 0.31 0.28 0.19 0.09 0.14 0.20 0.22 0.26 0.25 0.28 0.35 0.48 0.61 0.73 0.78 0.75 0.80 1.00 1.13 1.18 1.16 1.13 1.07 1.08 1.09 1.01 0.91 0.86 0.77 0.72 0.62 0.54
0.04 0.07 0.17 0.34 0.40 0.40 0.34 0.29 0.25 0.34 0.49 0.65 0.71 0.83 0.93 0.78 0.56 0.41 0.29 0.23 0.17 0.14 0.20 0.25 0.27 0.25 0.27 0.32 0.41 0.54 0.62 0.69 0.73 0.83 0.93 0.99 1.00 1.02 1.07 1.10 1.11 1.02 0.92 0.81 0.74 0.68 0.67 0.64 0.59
0.02 0.06 0.11 0.25 0.32 0.30 0.27 0.29 0.25 0.30 0.48 0.67 0.70 0.95 1.07 1.01 0.75 0.52 0.42 0.40 0.40 0.28 0.26 0.29 0.33 0.34 0.35 0.42 0.52 0.61 0.65 0.75 0.83 0.87 0.88 0.86 0.86 0.88 0.94 1.02 1.02 0.96 0.82 0.69 0.67 0.60 0.57 0.57 0.58
0.02 0.04 0.07 0.14 0.19 0.26 0.22 0.23 0.25 0.32 0.36 0.47 0.58 0.83 1.09 1.01 0.79 0.71 0.81 0.78 0.84 0.64 0.47 0.40 0.48 0.58 0.55 0.52 0.62 0.70 0.74 0.78 0.84 0.88 0.90 0.94 0.94 0.89 0.90 0.87 0.94 0.93 0.84 0.73 0.70 0.64 0.58 0.61 0.61
0.01 0.05 0.07 0.09 0.12 0.18 0.15 0.21 0.23 0.21 0.26 0.34 0.47 0.66 0.87 0.84 0.79 0.97 1.23 1.11 1.14 0.97 0.68 0.52 0.47 0.61 0.70 0.67 0.67 0.77 0.82 0.84 0.92 1.04 1.08 1.16 1.28 1.17 1.19 1.01 1.05 1.09 1.05 0.99 0.95 0.87 0.80 0.74 0.69
0.01 0.05 0.05 0.05 0.05 0.09 0.13 0.18 0.20 0.24 0.44 0.69 0.81 0.87 0.96 1.18 1.16 1.24 1.33 1.22 1.16 1.12 0.90 0.73 0.64 0.61 0.68 0.70 0.88 1.12 1.08 1.12 1.29 1.51 1.51 1.68 1.77 1.69 1.21 1.21 1.42 1.58 1.62 1.53 1.54 1.47 1.23 1.04 1.00
0.01 0.04 0.04 0.03 0.03 0.05 0.10 0.11 0.16 0.27 0.61 0.95 1.17 1.24 1.27 1.45 1.62 1.67 1.71 1.67 1.54 1.45 1.16 0.91 0.85 0.86 0.84 0.98 0.99 1.18 1.40 1.59 1.66 1.65 1.70 1.87 1.76 1.52 1.29 1.37 1.56 1.72 1.81 1.91 2.18 2.18 1.85 1.83 1.91
0.00 0.01 0.02 0.03 0.02 0.03 0.06 0.08 0.17 0.39 0.77 0.92 1.13 1.27 1.31 1.68 1.78 1.78 2.17 2.23 1.82 1.55 1.47 1.34 1.20 1.19 1.24 1.14 1.25 1.26 1.30 1.46 1.62 1.73 1.71 1.84 2.02 1.91 1.77 1.87 1.86 2.00 2.17 2.56 2.51 2.68 2.53 2.29 2.03
0.00 0.01 0.01 0.01 0.02 0.02 0.04 0.09 0.18 0.37 0.58 0.67 0.86 1.02 1.07 1.58 1.89 2.11 2.59 2.53 2.22 2.02 1.90 1.73 1.68 1.72 1.67 1.62 1.64 1.48 1.47 1.55 1.65 1.77 1.91 1.97 2.06 2.06 2.06 2.15 2.20 1.94 2.06 2.36 2.63 2.54 2.69 2.73 2.52
0.00 0.01 0.01 0.02 0.02 0.03 0.04 0.12 0.23 0.43 0.56 0.77 0.78 0.94 1.16 1.55 1.83 2.24 2.57 2.81 2.66 2.39 2.18 2.02 1.96 2.05 2.11 2.04 2.07 1.99 1.72 1.80 1.76 1.93 2.00 2.09 2.15 2.24 2.38 2.41 2.38 2.09 2.08 2.34 2.55 2.46 2.80 2.74 2.70
0.01 0.02 0.05 0.06 0.05 0.06 0.08 0.25 0.48 0.58 0.69 0.86 0.98 1.07 1.29 1.64 2.12 2.39 2.65 2.95 2.97 2.87 2.69 2.45 2.30 2.46 2.70 2.76 2.66 2.45 2.20 1.99 1.99 2.08 2.12 2.21 2.21 2.39 2.39 2.34 2.35 2.30 2.19 2.40 2.53 2.59 2.74 2.59 2.49
0.02 0.04 0.11 0.12 0.09 0.09 0.15 0.55 0.71 0.60 0.77 0.96 1.05 1.28 1.58 1.96 2.40 2.89 3.04 2.90 2.92 3.06 3.02 2.71 2.48 2.93 3.28 3.31 3.23 2.93 2.59 2.30 2.17 2.21 2.20 2.30 2.33 2.45 2.61 2.41 2.30 2.50 2.44 2.58 2.90 2.88 3.01 3.09 2.97
0.03 0.07 0.11 0.16 0.12 0.12 0.25 0.72 0.70 0.53 0.65 0.84 1.07 1.31 1.73 2.25 2.60 2.77 2.81 2.95 3.08 3.19 3.17 3.08 3.16 3.27 3.40 3.49 3.57 3.28 3.00 2.71 2.40 2.25 2.19 2.24 2.35 2.55 2.91 2.78 2.75 2.72 2.73 2.75 2.47 3.08 3.38 3.40 3.23
0.03 0.05 0.11 0.17 0.14 0.17 0.28 0.54 0.63 0.63 0.79 0.91 1.22 1.43 1.59 1.96 2.41 2.52 2.62 3.07 3.15 3.32 3.44 3.36 3.48 3.61 3.86 4.08 4.23 3.81 3.38 3.03 2.71 2.47 2.45 2.50 2.67 2.81 3.09 2.92 2.85 2.81 2.95 2.93 2.98 3.43 3.39 3.13 3.14
0.02 0.05 0.13 0.17 0.15 0.22 0.32 0.53 0.73 0.81 0.97 1.27 1.47 1.47 1.45 1.75 2.23 2.60 2.85 3.02 3.35 3.53 3.67 3.66 3.88 4.26 4.57 4.43 4.10 3.88 3.59 3.32 3.07 2.80 2.63 2.66 2.63 2.77 3.08 2.93 3.13 3.04 2.91 2.90 2.95 3.23 3.30 3.01 3.18
0.02 0.07 0.15 0.18 0.17 0.28 0.42 0.65 0.83 1.03 1.25 1.35 1.27 1.27 1.42 1.79 2.29 2.66 2.93 3.09 3.35 3.61 4.01 4.10 4.27 4.61 4.73 4.57 4.45 4.27 4.11 3.70 3.55 3.38 3.12 2.76 2.56 2.63 2.72 3.04 2.85 2.86 2.93 2.87 3.00 3.24 3.11 2.71 3.14
0.04 0.08 0.14 0.15 0.23 0.38 0.48 0.89 1.08 1.26 1.39 1.38 1.30 1.49 1.51 1.59 2.01 2.29 2.42 2.61 2.79 2.93 3.19 3.46 3.93 4.38 4.50 4.57 4.48 4.43 4.43 3.93 3.66 3.48 3.22 2.85 2.59 2.50 2.64 2.78 2.81 2.79 2.70 2.78 2.98 3.05 3.07 2.90 2.98
0.06 0.06 0.07 0.11 0.21 0.48 0.55 1.12 1.36 1.57 1.67 1.54 1.46 1.39 1.36 1.59 1.93 1.94 1.80 1.96 2.22 2.22 2.54 2.95 3.37 3.68 3.87 3.98 3.96 3.95 3.87 3.73 3.65 3.49 3.05 2.78 2.52 2.41 2.47 2.54 2.61 2.63 2.50 2.58 2.44 2.56 2.97 3.08 2.83
0.05 0.05 0.08 0.13 0.21 0.43 0.49 0.84 1.36 1.76 1.91 1.54 1.45 1.33 1.38 1.60 1.64 1.60 1.63 1.73 1.90 2.07 2.39 2.70 2.98 3.25 3.41 3.49 3.54 3.60 3.48 3.47 3.38 3.17 2.88 2.60 2.39 2.24 2.08 2.16 2.40 2.44 2.32 2.26 2.28 2.50 2.63 2.65 2.63
0.05 0.08 0.15 0.21 0.38 0.73 0.63 0.75 1.27 1.67 1.53 1.33 1.28 1.09 1.19 1.37 1.46 1.51 1.60 1.73 1.86 2.16 2.52 2.80 3.01 3.21 3.27 3.05 2.94 2.93 2.96 3.02 2.95 2.73 2.50 2.24 2.12 1.99 1.84 1.91 2.13 2.17 2.17 2.14 2.12 2.20 2.32 2.38 2.42
0.08 0.17 0.58 0.95 1.27 1.16 0.73 0.84 1.44 1.34 1.00 0.94 1.04 1.01 1.00 1.05 1.19 1.31 1.50 1.71 1.89 1.99 2.09 2.53 2.94 3.09 3.00 2.75 2.56 2.46 2.55 2.65 2.55 2.39 2.29 2.16 1.95 1.79 1.76 1.80 1.88 1.89 1.94 1.94 2.03 2.09 2.15 2.30 2.38
0.13 0.24 0.70 0.97 1.03 1.01 0.80 1.21 1.72 1.35 0.91 0.77 0.87 0.86 0.76 0.71 0.68 0.78 0.97 1.08 1.18 1.21 1.27 1.44 1.72 1.97 2.06 1.95 1.93 1.96 2.00 2.05 2.02 2.15 2.00 1.97 1.84 1.69 1.71 1.65 1.62 1.66 1.70 1.72 2.01 2.05 2.17 2.31 2.38
0.24 0.29 0.30 0.51 0.70 1.05 1.05 1.24 1.35 1.13 0.89 0.85 0.93 0.84 0.67 0.63 0.58 0.65 0.76 0.76 0.85 0.91 0.98 1.13 1.38 1.61 1.63 1.62 1.62 1.63 1.66 1.69 1.69 1.75 1.68 1.66 1.69 1.61 1.61 1.61 1.70 1.66 1.67 1.76 1.94 1.99 2.04 2.22 2.26
0.20 0.28 0.43 0.68 0.92 1.07 1.13 1.42 1.61 1.44 1.19 1.05 1.00 0.88 0.67 0.55 0.54 0.60 0.70 0.69 0.80 0.97 1.13 1.26 1.36 1.45 1.44 1.41 1.38 1.30 1.42 1.43 1.48 1.45 1.39 1.39 1.46 1.47 1.47 1.49 1.56 1.61 1.61 1.68 1.87 1.91 1.98 2.09 2.10
0.23 0.30 0.46 0.64 0.70 0.91 1.27 1.38 1.15 1.12 1.10 1.15 1.14 0.96 0.72 0.55 0.49 0.55 0.67 0.73 0.81 0.94 1.08 1.21 1.30 1.39 1.36 1.31 1.35 1.39 1.40 1.41 1.40 1.36 1.29 1.34 1.41 1.43 1.42 1.45 1.54 1.59 1.63 1.72 1.82 1.78 1.88 1.89 1.88
0.22 0.33 0.48 0.71 0.77 0.81 0.97 1.10 0.72 0.74 0.86 0.93 0.93 0.75 0.58 0.51 0.49 0.57 0.69 0.73 0.87 0.95 0.99 1.00 1.09 1.27 1.28 1.29 1.40 1.58 1.54 1.51 1.44 1.32 1.25 1.31 1.33 1.37 1.40 1.48 1.56 1.54 1.60 1.76 1.83 1.78 1.82 1.84 1.81

GEFSSGP_prec_meanprecacc_252.txt.gz
Total_Precipitation_Accumulation
0.04 0.10 0.29 0.49 0.88 1.41 1.42 0.93 0.75 0.52 0.41 0.43 0.34 0.31 0.40 0.60 0.89 1.42 1.13 0.81 0.54 0.53 0.68 0.87 0.95 0.93 0.93 0.99 1.21 1.28 1.28 1.32 1.35 1.45 1.54 1.58 1.59 1.50 1.38 1.36 1.33 1.30 1.26 1.18 1.09 1.09 1.10 0.99 0.97
0.05 0.11 0.27 0.49 1.09 1.63 1.34 0.70 0.48 0.38 0.34 0.38 0.35 0.35 0.51 0.56 0.48 0.68 0.74 0.64 0.41 0.41 0.52 0.57 0.64 0.70 0.77 0.87 0.97 1.06 1.08 1.08 1.17 1.39 1.50 1.53 1.48 1.40 1.32 1.25 1.21 1.19 1.19 1.18 1.09 1.06 0.98 0.87 0.86
0.06 0.12 0.26 0.55 0.97 1.18 0.96 0.57 0.37 0.30 0.35 0.49 0.52 0.42 0.62 0.61 0.50 0.60 0.57 0.37 0.27 0.30 0.41 0.46 0.49 0.52 0.55 0.59 0.68 0.86 0.98 1.04 1.14 1.24 1.29 1.31 1.29 1.27 1.19 1.15 1.19 1.19 1.25 1.29 1.14 1.00 0.89 0.80 0.71
0.04 0.13 0.23 0.45 0.58 0.53 0.50 0.41 0.32 0.31 0.35 0.46 0.56 0.57 0.67 0.52 0.37 0.41 0.38 0.23 0.15 0.23 0.34 0.37 0.37 0.37 0.42 0.45 0.55 0.69 0.80 0.90 1.00 1.04 1.09 1.18 1.32 1.27 1.14 1.15 1.20 1.26 1.30 1.21 1.06 0.90 0.82 0.77 0.65
0.04 0.11 0.22 0.41 0.49 0.45 0.38 0.36 0.33 0.40 0.44 0.52 0.57 0.78 0.84 0.62 0.41 0.33 0.31 0.21 0.11 0.16 0.25 0.29 0.30 0.29 0.33 0.39 0.51 0.66 0.79 0.86 0.84 0.90 1.11 1.27 1.33 1.30 1.25 1.20 1.25 1.26 1.19 1.08 1.04 0.94 0.89 0.77 0.67
0.04 0.07 0.17 0.34 0.40 0.40 0.34 0.29 0.25 0.34 0.49 0.65 0.71 0.84 0.94 0.80 0.57 0.43 0.31 0.25 0.19 0.15 0.23 0.31 0.32 0.30 0.32 0.36 0.44 0.58 0.68 0.77 0.82 0.94 1.05 1.11 1.14 1.17 1.22 1.25 1.31 1.22 1.14 1.03 0.96 0.88 0.85 0.78 0.71
0.02 0.06 0.11 0.25 0.33 0.30 0.27 0.29 0.25 0.30 0.48 0.67 0.70 0.95 1.08 1.03 0.77 0.53 0.43 0.42 0.42 0.29 0.28 0.32 0.36 0.38 0.40 0.46 0.57 0.67 0.72 0.83 0.92 0.98 0.98 0.95 0.96 1.04 1.15 1.25 1.27 1.19 1.04 0.91 0.90 0.82 0.73 0.69 0.67
0.02 0.04 0.07 0.14 0.19 0.27 0.22 0.23 0.25 0.32 0.36 0.47 0.58 0.83 1.09 1.02 0.81 0.72 0.82 0.80 0.85 0.64 0.48 0.42 0.50 0.61 0.59 0.57 0.68 0.76 0.81 0.85 0.91 0.95 0.98 1.02 1.04 1.05 1.12 1.16 1.24 1.19 1.06 0.93 0.90 0.82 0.73 0.71 0.69
0.01 0.05 0.07 0.09 0.12 0.18 0.15 0.21 0.24 0.21 0.26 0.35 0.48 0.66 0.87 0.84 0.79 0.97 1.23 1.11 1.14 0.97 0.70 0.54 0.50 0.64 0.75 0.71 0.71 0.82 0.87 0.90 0.98 1.11 1.15 1.26 1.39 1.33 1.45 1.37 1.41 1.36 1.29 1.21 1.14 1.03 0.93 0.84 0.78
0.01 0.05 0.05 0.05 0.05 0.09 0.13 0.18 0.20 0.24 0.44 0.69 0.82 0.87 0.96 1.18 1.16 1.24 1.33 1.22 1.17 1.13 0.92 0.76 0.68 0.65 0.73 0.75 0.93 1.17 1.13 1.17 1.33 1.55 1.56 1.74 1.85 1.83 1.42 1.51 1.71 1.81 1.85 1.72 1.70 1.61 1.32 1.10 1.05
0.01 0.04 0.04 0.03 0.03 0.05 0.10 0.11 0.16 0.27 0.61 0.96 1.17 1.24 1.27 1.45 1.63 1.68 1.72 1.68 1.55 1.46 1.18 0.94 0.88 0.91 0.92 1.06 1.06 1.24 1.45 1.64 1.70 1.68 1.73 1.91 1.82 1.60 1.42 1.53 1.69 1.86 1.95 2.03 2.27 2.25 1.89 1.86 1.94
0.00 0.01 0.02 0.03 0.02 0.03 0.06 0.08 0.17 0.39 0.77 0.93 1.13 1.27 1.31 1.69 1.78 1.78 2.18 2.24 1.84 1.57 1.49 1.37 1.23 1.23 1.33 1.22 1.32 1.33 1.36 1.51 1.67 1.77 1.75 1.88 2.08 1.99 1.85 1.95 1.92 2.08 2.24 2.62 2.56 2.72 2.56 2.31 2.04
0.00 0.01 0.01 0.02 0.02 0.03 0.04 0.09 0.18 0.37 0.59 0.67 0.87 1.03 1.07 1.58 1.89 2.11 2.59 2.53 2.23 2.04 1.92 1.75 1.70 1.76 1.73 1.70 1.72 1.54 1.54 1.62 1.71 1.82 1.95 2.01 2.12 2.13 2.13 2.21 2.25 1.97 2.08 2.39 2.67 2.59 2.73 2.76 2.55
0.00 0.01 0.02 0.03 0.03 0.04 0.04 0.12 0.23 0.43 0.56 0.77 0.78 0.94 1.16 1.55 1.83 2.24 2.57 2.81 2.67 2.41 2.21 2.05 1.99 2.08 2.16 2.10 2.13 2.05 1.78 1.86 1.80 1.97 2.03 2.12 2.20 2.29 2.43 2.46 2.42 2.13 2.11 2.38 2.59 2.51 2.85 2.79 2.74
0.01 0.02 0.05 0.06 0.06 0.06 0.08 0.25 0.48 0.58 0.70 0.86 0.98 1.07 1.29 1.64 2.13 2.40 2.66 2.96 2.99 2.90 2.72 2.48 2.33 2.50 2.73 2.79 2.70 2.48 2.23 2.02 2.02 2.11 2.15 2.23 2.23 2.42 2.42 2.37 2.39 2.34 2.24 2.45 2.57 2.63 2.79 2.64 2.52
0.02 0.04 0.11 0.12 0.09 0.09 0.15 0.55 0.71 0.60 0.77 0.96 1.05 1.28 1.58 1.96 2.40 2.89 3.04 2.91 2.95 3.10 3.05 2.74 2.51 2.96 3.31 3.34 3.27 2.97 2.62 2.32 2.19 2.23 2.22 2.31 2.35 2.48 2.64 2.43 2.34 2.54 2.48 2.63 2.94 2.92 3.05 3.14 3.01
0.03 0.07 0.11 0.16 0.12 0.12 0.25 0.72 0.70 0.53 0.65 0.84 1.07 1.31 1.73 2.25 2.60 2.77 2.81 2.97 3.12 3.24 3.21 3.11 3.19 3.29 3.42 3.51 3.59 3.31 3.04 2.76 2.46 2.31 2.22 2.26 2.36 2.57 2.94 2.81 2.80 2.76 2.76 2.80 2.50 3.11 3.41 3.43 3.26
0.03 0.05 0.11 0.17 0.15 0.18 0.28 0.54 0.63 0.63 0.79 0.91 1.22 1.43 1.59 1.97 2.42 2.52 2.63 3.09 3.18 3.37 3.50 3.41 3.52 3.63 3.89 4.10 4.25 3.84 3.41 3.10 2.80 2.57 2.53 2.53 2.69 2.84 3.12 2.95 2.89 2.85 3.00 3.00 3.04 3.49 3.44 3.17 3.16
0.02 0.05 0.13 0.17 0.15 0.22 0.32 0.53 0.73 0.81 0.97 1.27 1.47 1.47 1.45 1.75 2.23 2.60 2.85 3.02 3.37 3.57 3.74 3.73 3.93 4.30 4.60 4.45 4.12 3.90 3.61 3.36 3.13 2.88 2.72 2.71 2.66 2.82 3.13 2.98 3.20 3.10 2.98 2.97 3.01 3.29 3.34 3.05 3.21
0.02 0.07 0.15 0.18 0.17 0.28 0.42 0.65 0.83 1.03 1.25 1.35 1.27 1.27 1.42 1.79 2.29 2.66 2.94 3.10 3.36 3.62 4.03 4.14 4.32 4.66 4.76 4.60 4.47 4.29 4.13 3.72 3.58 3.41 3.17 2.80 2.61 2.69 2.78 3.11 2.92 2.95 3.04 2.95 3.07 3.30 3.16 2.76 3.19
0.04 0.08 0.14 0.15 0.23 0.38 0.48 0.89 1.08 1.26 1.39 1.38 1.30 1.49 1.51 1.59 2.01 2.29 2.42 2.61 2.80 2.94 3.19 3.47 3.94 4.40 4.52 4.60 4.52 4.46 4.46 3.96 3.69 3.52 3.28 2.90 2.64 2.55 2.71 2.86 2.91 2.91 2.82 2.87 3.07 3.11 3.13 2.96 3.02
0.06 0.06 0.07 0.11 0.21 0.48 0.56 1.12 1.36 1.57 1.67 1.54 1.46 1.39 1.36 1.59 1.93 1.94 1.81 1.96 2.22 2.22 2.54 2.95 3.37 3.69 3.88 3.99 3.99 3.98 3.91 3.77 3.69 3.55 3.14 2.86 2.60 2.51 2.56 2.63 2.69 2.72 2.57 2.66 2.50 2.61 3.05 3.15 2.89
0.05 0.05 0.08 0.13 0.21 0.43 0.49 0.84 1.36 1.76 1.91 1.54 1.45 1.33 1.38 1.60 1.64 1.60 1.63 1.73 1.90 2.07 2.39 2.70 2.99 3.26 3.41 3.50 3.56 3.62 3.50 3.50 3.41 3.22 2.95 2.69 2.51 2.34 2.15 2.22 2.44 2.50 2.37 2.32 2.35 2.57 2.71 2.71 2.69
0.05 0.08 0.15 0.22 0.39 0.73 0.63 0.75 1.27 1.68 1.53 1.33 1.28 1.09 1.19 1.38 1.46 1.51 1.60 1.73 1.86 2.16 2.52 2.80 3.01 3.22 3.28 3.06 2.95 2.94 2.98 3.04 2.97 2.76 2.55 2.30 2.18 2.04 1.87 1.94 2.17 2.22 2.22 2.20 2.19 2.28 2.39 2.46 2.49
0.08 0.17 0.58 0.96 1.28 1.16 0.73 0.84 1.44 1.34 1.00 0.94 1.04 1.01 1.00 1.05 1.19 1.31 1.50 1.71 1.89 1.99 2.09 2.53 2.95 3.11 3.02 2.76 2.57 2.47 2.57 2.67 2.57 2.41 2.32 2.19 1.97 1.82 1.79 1.83 1.92 1.92 1.98 1.98 2.08 2.15 2.21 2.37 2.46
0.13 0.24 0.70 0.97 1.03 1.01 0.81 1.21 1.72 1.35 0.91 0.77 0.87 0.86 0.76 0.71 0.68 0.78 0.97 1.08 1.18 1.22 1.28 1.45 1.73 1.98 2.06 1.95 1.94 1.99 2.02 2.07 2.04 2.17 2.03 2.00 1.87 1.72 1.73 1.68 1.65 1.70 1.74 1.76 2.07 2.12 2.24 2.38 2.45
0.24 0.29 0.30 0.51 0.70 1.05 1.05 1.24 1.35 1.13 0.89 0.85 0.94 0.85 0.67 0.63 0.58 0.65 0.76 0.76 0.86 0.92 0.98 1.13 1.38 1.61 1.64 1.62 1.65 1.69 1.70 1.71 1.71 1.77 1.71 1.69 1.72 1.64 1.63 1.63 1.73 1.70 1.72 1.82 2.00 2.06 2.14 2.33 2.37
0.20 0.28 0.43 0.68 0.92 1.07 1.13 1.43 1.61 1.44 1.19 1.05 1.01 0.88 0.67 0.55 0.54 0.60 0.70 0.69 0.80 0.97 1.13 1.26 1.37 1.45 1.45 1.43 1.41 1.34 1.44 1.44 1.49 1.47 1.41 1.42 1.49 1.50 1.50 1.52 1.60 1.66 1.67 1.74 1.94 1.99 2.06 2.18 2.19
0.23 0.30 0.46 0.64 0.70 0.91 1.27 1.38 1.15 1.12 1.10 1.15 1.14 0.96 0.72 0.55 0.49 0.55 0.67 0.73 0.81 0.95 1.08 1.22 1.31 1.40 1.36 1.32 1.37 1.40 1.41 1.42 1.42 1.39 1.32 1.39 1.46 1.48 1.47 1.51 1.59 1.63 1.67 1.77 1.88 1.84 1.95 1.97 1.96
0.22 0.33 0.48 0.71 0.77 0.81 0.97 1.10 0.72 0.74 0.86 0.93 0.93 0.75 0.58 0.51 0.49 0.57 0.69 0.74 0.87 0.95 0.99 1.00 1.09 1.27 1.29 1.30 1.41 1.59 1.56 1.55 1.49 1.37 1.33 1.38 1.39 1.41 1.42 1.51 1.58 1.57 1.64 1.80 1.89 1.86 1.93 1.94 1.89

GEFSSGP_prec_meanprecacc_258.txt.gz
Total_Precipitation_Accumulation
0.04 0.10 0.29 0.51 0.92 1.43 1.43 0.94 0.75 0.53 0.42 0.43 0.34 0.32 0.41 0.62 0.93 1.56 1.30 0.90 0.59 0.58 0.76 0.96 1.04 1.06 1.05 1.07 1.28 1.35 1.35 1.39 1.42 1.54 1.64 1.68 1.68 1.59 1.48 1.47 1.48 1.48 1.43 1.37 1.36 1.34 1.28 1.12 1.07
0.05 0.12 0.29 0.52 1.12 1.64 1.35 0.70 0.48 0.38 0.34 0.38 0.36 0.35 0.51 0.56 0.51 0.76 0.84 0.71 0.46 0.46 0.60 0.66 0.77 0.84 0.87 0.95 1.03 1.12 1.17 1.16 1.26 1.49 1.60 1.63 1.59 1.52 1.44 1.36 1.33 1.33 1.37 1.42 1.31 1.23 1.13 0.98 0.95
0.06 0.13 0.27 0.56 0.98 1.18 0.97 0.57 0.37 0.30 0.35 0.49 0.52 0.42 0.62 0.63 0.52 0.66 0.66 0.46 0.37 0.43 0.54 0.60 0.63 0.62 0.63 0.66 0.75 0.92 1.06 1.14 1.24 1.35 1.41 1.41 1.39 1.38 1.28 1.24 1.28 1.30 1.41 1.47 1.30 1.15 1.01 0.89 0.80
0.05 0.14 0.24 0.45 0.58 0.53 0.51 0.41 0.32 0.31 0.35 0.46 0.57 0.57 0.69 0.55 0.42 0.49 0.48 0.34 0.26 0.34 0.42 0.46 0.47 0.43 0.48 0.52 0.62 0.76 0.87 1.00 1.13 1.17 1.20 1.29 1.42 1.37 1.24 1.24 1.30 1.38 1.46 1.36 1.20 1.02 0.92 0.87 0.75
0.05 0.11 0.23 0.42 0.49 0.45 0.38 0.36 0.33 0.40 0.44 0.52 0.57 0.79 0.87 0.66 0.46 0.39 0.38 0.28 0.16 0.21 0.30 0.35 0.35 0.34 0.39 0.44 0.56 0.72 0.85 0.93 0.93 1.02 1.26 1.39 1.42 1.41 1.39 1.33 1.37 1.41 1.36 1.23 1.16 1.05 1.01 0.89 0.81
0.05 0.07 0.17 0.34 0.40 0.40 0.34 0.29 0.25 0.34 0.49 0.65 0.71 0.84 0.98 0.84 0.60 0.47 0.35 0.28 0.21 0.16 0.26 0.35 0.37 0.37 0.38 0.41 0.49 0.64 0.74 0.83 0.90 1.03 1.17 1.26 1.26 1.29 1.36 1.40 1.47 1.43 1.35 1.21 1.12 1.05 1.01 0.95 0.87
0.03 0.06 0.12 0.25 0.33 0.30 0.27 0.29 0.25 0.30 0.48 0.67 0.70 0.96 1.11 1.08 0.81 0.56 0.45 0.43 0.43 0.30 0.30 0.37 0.43 0.47 0.51 0.58 0.68 0.77 0.81 0.93 1.01 1.06 1.09 1.08 1.09 1.15 1.29 1.40 1.47 1.44 1.27 1.10 1.08 1.02 0.96 0.89 0.83
0.02 0.05 0.08 0.14 0.19 0.27 0.22 0.23 0.25 0.32 0.37 0.47 0.58 0.84 1.11 1.05 0.84 0.74 0.84 0.81 0.86 0.65 0.51 0.47 0.57 0.70 0.70 0.69 0.80 0.89 0.95 1.00 1.05 1.07 1.09 1.14 1.19 1.20 1.28 1.34 1.50 1.44 1.29 1.13 1.08 0.98 0.87 0.87 0.83
0.02 0.08 0.08 0.09 0.12 0.18 0.15 0.21 0.24 0.21 0.27 0.35 0.48 0.66 0.87 0.84 0.80 0.98 1.25 1.13 1.17 1.00 0.75 0.61 0.55 0.69 0.82 0.79 0.78 0.91 0.97 1.02 1.12 1.26 1.29 1.40 1.55 1.49 1.64 1.64 1.72 1.61 1.50 1.39 1.30 1.15 1.02 0.92 0.87
0.01 0.06 0.05 0.05 0.05 0.09 0.13 0.18 0.20 0.24 0.45 0.70 0.83 0.87 0.96 1.18 1.17 1.26 1.36 1.26 1.20 1.17 0.97 0.83 0.73 0.69 0.79 0.80 0.98 1.26 1.21 1.25 1.42 1.67 1.69 1.90 2.06 2.07 1.70 1.87 2.03 2.05 2.04 1.88 1.84 1.71 1.41 1.16 1.12
0.01 0.04 0.04 0.03 0.03 0.05 0.10 0.11 0.16 0.27 0.61 0.97 1.19 1.25 1.27 1.48 1.66 1.71 1.75 1.70 1.58 1.49 1.21 0.99 0.95 0.97 0.97 1.10 1.09 1.29 1.50 1.70 1.75 1.74 1.82 2.04 1.99 1.84 1.70 1.86 1.98 2.05 2.10 2.17 2.38 2.32 1.94 1.90 1.98
0.01 0.01 0.02 0.03 0.02 0.03 0.06 0.08 0.17 0.39 0.77 0.93 1.15 1.29 1.32 1.70 1.80 1.80 2.20 2.26 1.85 1.58 1.51 1.40 1.31 1.31 1.39 1.25 1.36 1.36 1.38 1.55 1.70 1.82 1.80 1.94 2.19 2.13 2.01 2.15 2.10 2.21 2.35 2.73 2.64 2.80 2.64 2.34 2.06
0.01 0.01 0.01 0.02 0.02 0.03 0.04 0.09 0.18 0.37 0.59 0.68 0.87 1.03 1.08 1.58 1.90 2.11 2.59 2.55 2.26 2.06 1.94 1.78 1.74 1.82 1.80 1.76 1.77 1.56 1.56 1.64 1.73 1.85 2.00 2.06 2.19 2.22 2.22 2.32 2.36 2.06 2.14 2.45 2.74 2.67 2.83 2.82 2.58
0.00 0.01 0.02 0.03 0.03 0.04 0.04 0.12 0.23 0.43 0.56 0.77 0.79 0.94 1.16 1.55 1.83 2.24 2.58 2.83 2.69 2.44 2.24 2.08 2.04 2.15 2.23 2.17 2.19 2.09 1.81 1.89 1.83 2.01 2.10 2.19 2.26 2.37 2.51 2.55 2.52 2.19 2.15 2.42 2.63 2.55 2.90 2.84 2.79
0.01 0.02 0.05 0.06 0.06 0.06 0.08 0.26 0.48 0.58 0.70 0.86 0.98 1.07 1.29 1.64 2.13 2.40 2.66 2.98 3.01 2.93 2.74 2.50 2.37 2.54 2.77 2.84 2.74 2.52 2.27 2.05 2.06 2.16 2.22 2.29 2.28 2.47 2.47 2.42 2.44 2.39 2.28 2.51 2.61 2.66 2.83 2.68 2.56
0.02 0.04 0.11 0.12 0.09 0.09 0.16 0.57 0.72 0.60 0.77 0.96 1.05 1.28 1.58 1.96 2.40 2.89 3.06 2.95 2.98 3.12 3.07 2.76 2.53 2.97 3.33 3.37 3.30 3.00 2.69 2.37 2.24 2.29 2.28 2.35 2.39 2.52 2.68 2.47 2.37 2.58 2.52 2.67 2.98 2.96 3.09 3.19 3.05
0.03 0.07 0.11 0.16 0.12 0.12 0.25 0.73 0.71 0.53 0.65 0.84 1.07 1.31 1.74 2.25 2.61 2.77 2.83 3.02 3.15 3.25 3.22 3.12 3.21 3.31 3.44 3.54 3.62 3.35 3.09 2.82 2.53 2.41 2.35 2.36 2.44 2.63 2.98 2.86 2.85 2.80 2.79 2.83 2.54 3.15 3.45 3.49 3.31
0.04 0.07 0.14 0.17 0.15 0.18 0.28 0.55 0.63 0.63 0.79 0.91 1.22 1.43 1.59 1.97 2.42 2.52 2.64 3.12 3.21 3.39 3.51 3.42 3.53 3.66 3.91 4.12 4.27 3.87 3.45 3.14 2.84 2.65 2.69 2.67 2.79 2.90 3.17 3.00 2.94 2.88 3.03 3.04 3.08 3.54 3.50 3.24 3.23
0.03 0.07 0.16 0.18 0.16 0.22 0.32 0.54 0.73 0.81 0.97 1.27 1.47 1.47 1.45 1.75 2.24 2.60 2.85 3.05 3.39 3.59 3.75 3.74 3.94 4.32 4.64 4.49 4.17 3.95 3.66 3.41 3.17 2.92 2.80 2.82 2.73 2.86 3.18 3.03 3.26 3.16 3.03 3.03 3.06 3.36 3.44 3.15 3.31
0.03 0.07 0.16 0.19 0.18 0.29 0.43 0.65 0.83 1.03 1.25 1.35 1.27 1.27 1.42 1.79 2.29 2.66 2.94 3.10 3.36 3.63 4.04 4.15 4.33 4.67 4.78 4.63 4.51 4.33 4.16 3.75 3.61 3.44 3.23 2.87 2.65 2.73 2.83 3.17 2.98 3.03 3.11 3.03 3.15 3.41 3.29 2.87 3.30
0.04 0.08 0.14 0.15 0.23 0.39 0.49 0.92 1.10 1.26 1.39 1.38 1.30 1.49 1.51 1.59 2.02 2.29 2.42 2.61 2.80 2.94 3.19 3.47 3.95 4.41 4.54 4.61 4.52 4.47 4.48 3.99 3.72 3.55 3.32 2.93 2.66 2.59 2.77 2.93 3.00 3.03 2.92 2.97 3.17 3.22 3.25 3.07 3.13
0.06 0.07 0.07 0.11 0.21 0.48 0.56 1.15 1.38 1.59 1.68 1.54 1.46 1.40 1.36 1.59 1.93 1.94 1.81 1.97 2.22 2.22 2.54 2.95 3.38 3.70 3.89 4.00 4.00 4.00 3.94 3.81 3.73 3.59 3.18 2.90 2.63 2.54 2.64 2.76 2.82 2.85 2.69 2.78 2.61 2.73 3.16 3.25 2.99
0.05 0.05 0.08 0.13 0.21 0.44 0.49 0.85 1.38 1.78 1.93 1.55 1.45 1.33 1.38 1.60 1.64 1.60 1.63 1.73 1.90 2.08 2.39 2.70 3.00 3.28 3.43 3.52 3.58 3.65 3.53 3.54 3.45 3.26 3.01 2.76 2.57 2.41 2.22 2.32 2.55 2.60 2.48 2.44 2.47 2.70 2.81 2.80 2.77
0.05 0.08 0.15 0.22 0.39 0.74 0.63 0.75 1.29 1.71 1.57 1.35 1.29 1.09 1.19 1.38 1.46 1.51 1.60 1.73 1.86 2.16 2.52 2.81 3.03 3.23 3.30 3.08 2.96 2.96 2.99 3.06 3.00 2.81 2.62 2.36 2.23 2.08 1.90 1.98 2.24 2.31 2.32 2.31 2.30 2.39 2.47 2.52 2.56
0.08 0.17 0.58 0.99 1.30 1.17 0.73 0.85 1.45 1.37 1.03 0.95 1.04 1.02 1.01 1.05 1.19 1.31 1.50 1.71 1.89 1.99 2.10 2.53 2.95 3.12 3.03 2.77 2.58 2.48 2.58 2.68 2.60 2.44 2.36 2.23 2.01 1.86 1.83 1.87 1.99 2.00 2.06 2.06 2.17 2.24 2.29 2.44 2.53
0.13 0.24 0.70 0.99 1.05 1.01 0.81 1.22 1.74 1.35 0.91 0.77 0.87 0.87 0.76 0.71 0.68 0.78 0.97 1.08 1.18 1.22 1.28 1.45 1.73 1.98 2.07 1.97 1.96 2.00 2.03 2.09 2.07 2.22 2.07 2.02 1.89 1.75 1.78 1.72 1.70 1.75 1.79 1.81 2.13 2.19 2.31 2.46 2.54
0.24 0.29 0.30 0.52 0.71 1.05 1.06 1.26 1.37 1.14 0.89 0.86 0.94 0.85 0.67 0.63 0.59 0.65 0.76 0.78 0.86 0.92 0.98 1.13 1.38 1.62 1.65 1.64 1.67 1.71 1.72 1.74 1.76 1.81 1.74 1.72 1.75 1.67 1.65 1.65 1.76 1.74 1.76 1.87 2.08 2.14 2.22 2.44 2.49
0.20 0.28 0.43 0.69 0.92 1.07 1.14 1.47 1.64 1.46 1.19 1.05 1.01 0.88 0.67 0.55 0.54 0.60 0.71 0.71 0.82 0.98 1.14 1.26 1.37 1.46 1.45 1.44 1.43 1.36 1.46 1.46 1.52 1.51 1.44 1.46 1.54 1.55 1.53 1.55 1.64 1.69 1.71 1.80 2.02 2.06 2.14 2.27 2.29
0.23 0.30 0.47 0.64 0.70 0.91 1.28 1.43 1.20 1.15 1.10 1.15 1.14 0.97 0.72 0.55 0.49 0.56 0.68 0.74 0.82 0.95 1.09 1.22 1.31 1.40 1.37 1.33 1.39 1.42 1.43 1.44 1.44 1.41 1.34 1.41 1.48 1.51 1.49 1.54 1.63 1.67 1.71 1.83 1.96 1.95 2.06 2.05 2.02
0.22 0.33 0.48 0.71 0.77 0.81 0.98 1.12 0.74 0.76 0.87 0.93 0.93 0.75 0.58 0.51 0.49 0.58 0.70 0.75 0.88 0.95 1.00 1.00 1.09 1.28 1.30 1.31 1.43 1.62 1.59 1.57 1.51 1.39 1.34 1.40 1.42 1.43 1.45 1.53 1.61 1.60 1.68 1.85 1.94 1.92 2.05 2.06 1.97